Latitude: N 50° 09' 49" Longitude: W 05° 11' 53" Elevation: 168m ASL

There are 3 visitors online

Adverts

<- Previous Day | Today | Next Day ->

All Data for 25 April 2019

Time
A - D
Temp
A - D
Dew Point
A - D
Humidity
A - D
Pressure
A - D
Wind
A - D
Wind Dir Gust
A - D
Rain Rate
A - D
Rain Total
00:00 9.4 6.8 84 990.5 3.8 NE 8.3 0.0 0.0
00:01 9.4 6.8 84 990.7 3.8 NE 8.3 0.0 0.0
00:02 9.4 6.8 84 990.6 3.8 NE 8.3 0.0 0.0
00:04 9.4 6.8 84 990.8 3.8 NE 8.3 0.0 0.0
00:05 9.4 6.8 84 990.6 3.8 NE 8.3 0.0 0.0
00:06 9.5 6.8 83 990.7 3.1 N 8.3 0.0 0.0
00:07 9.4 6.7 83 990.6 2.2 NW 8.3 0.0 0.0
00:08 9.4 6.7 83 990.6 3.1 N 8.3 0.0 0.0
00:09 9.4 6.8 84 990.6 3.8 NW 3.8 0.0 0.0
00:10 9.4 6.7 83 990.5 5.4 NW 5.4 0.0 0.0
00:11 9.4 6.7 83 990.5 2.2 N 5.4 0.0 0.0
00:12 9.4 6.8 84 990.6 3.8 N 5.4 0.0 0.0
00:13 9.4 6.8 84 990.5 1.6 NE 5.4 0.0 0.0
00:14 9.4 6.7 83 990.4 4.5 SW 5.4 0.0 0.0
00:15 9.4 6.7 83 990.4 5.4 E 5.4 0.0 0.0
00:16 9.4 6.7 83 990.5 5.4 N 5.4 0.0 0.0
00:18 9.5 6.9 84 990.3 5.4 NW 5.4 0.0 0.0
00:19 9.5 6.9 84 990.3 3.8 N 5.4 0.0 0.0
00:20 9.5 6.9 84 990.4 5.4 NE 5.4 0.0 0.0
00:21 9.5 6.9 84 990.3 5.4 WNW 5.4 0.0 0.0
00:22 9.5 6.9 84 990.3 4.5 NW 5.4 0.0 0.0
00:23 9.5 6.9 84 990.5 6.9 NE 6.9 0.0 0.0
00:24 9.5 6.9 84 990.5 6.9 NE 6.9 0.0 0.0
00:25 9.5 6.9 84 990.5 7.6 NE 7.6 0.0 0.0
00:26 9.5 6.9 84 990.5 3.1 NE 7.6 0.0 0.0
00:27 9.5 6.9 84 990.5 3.1 NE 7.6 0.0 0.0
00:28 9.5 6.9 84 990.4 4.5 N 7.6 0.0 0.0
00:29 9.6 7.0 84 990.4 4.5 SE 7.6 0.0 0.0
00:30 9.6 7.0 84 990.5 3.1 SE 7.6 0.0 0.0
00:32 9.6 7.0 84 990.4 2.2 NW 7.6 0.0 0.0
00:33 9.6 7.0 84 990.4 3.1 SW 7.6 0.0 0.0
00:34 9.6 7.0 84 990.3 6.0 NE 7.6 0.0 0.0
00:35 9.6 7.0 84 990.4 7.6 NW 7.6 0.0 0.0
00:36 9.6 7.0 84 990.2 5.4 SE 7.6 0.0 0.0
00:37 9.6 7.0 84 990.5 6.9 NE 7.6 0.0 0.0
00:38 9.6 7.0 84 990.4 4.5 W 7.6 0.0 0.0
00:39 9.6 7.0 84 990.4 3.1 W 7.6 0.0 0.0
00:40 9.6 7.0 84 990.4 3.1 N 7.6 0.0 0.0
00:41 9.6 7.0 84 990.4 3.1 N 7.6 0.0 0.0
00:42 9.6 7.0 84 990.3 8.3 N 8.3 0.0 0.0
00:43 9.6 7.0 84 990.1 5.4 NW 8.3 0.0 0.0
00:44 9.6 7.0 84 990.4 6.0 NE 8.3 0.0 0.0
00:45 9.6 7.0 84 990.3 3.8 NE 8.3 0.0 0.0
00:47 9.6 7.0 84 990.4 2.2 W 8.3 0.0 0.0
00:48 9.5 6.9 84 990.3 2.2 N 8.3 0.0 0.0
00:49 9.5 6.9 84 990.4 3.1 NW 8.3 0.0 0.0
00:50 9.5 6.9 84 990.2 3.8 N 8.3 0.0 0.0
00:51 9.5 6.9 84 990.2 3.8 NW 8.3 0.0 0.0
00:52 9.5 6.9 84 990.2 3.8 NW 8.3 0.0 0.0
00:53 9.5 6.9 84 990.3 1.6 NW 6.0 0.0 0.0
00:54 9.5 6.9 84 990.2 3.1 WNW 3.8 0.0 0.0
00:55 9.5 6.9 84 990.3 3.1 NW 3.8 0.0 0.0
00:56 9.5 6.9 84 990.3 3.1 N 3.8 0.0 0.0
00:57 9.5 6.9 84 990.2 2.2 NE 7.6 0.0 0.0
00:58 9.5 6.9 84 990.3 2.2 N 7.6 0.0 0.0
00:59 9.5 6.9 84 990.3 3.1 WNW 7.6 0.0 0.0
01:00 9.5 6.9 84 990.1 3.1 WNW 7.6 0.0 0.0
01:01 9.5 6.9 84 990.2 3.1 WNW 7.6 0.0 0.0
01:03 9.5 6.9 84 990.1 3.1 WNW 7.6 0.0 0.0
01:04 9.5 6.9 84 990.1 3.1 WNW 7.6 0.0 0.0
01:05 9.5 6.9 84 990.1 3.1 WNW 7.6 0.0 0.0
01:06 9.4 7.0 85 990.1 2.2 NW 7.6 0.0 0.0
01:07 9.4 7.0 85 990.1 5.4 SW 5.4 0.0 0.0
01:08 9.4 7.0 85 990.1 5.4 SW 5.4 0.0 0.0
01:09 9.4 6.8 84 990.1 2.2 N 5.4 0.0 0.0
01:10 9.4 6.8 84 990.1 3.8 E 5.4 0.0 0.0
01:11 9.4 7.0 85 990.2 1.6 N 5.4 0.0 0.0
01:12 9.4 7.0 85 990.1 2.2 NW 5.4 0.0 0.0
01:13 9.4 7.0 85 990.0 2.2 N 5.4 0.0 0.0
01:14 9.4 7.0 85 990.1 3.1 NW 5.4 0.0 0.0
01:15 9.4 7.0 85 990.1 3.8 NE 5.4 0.0 0.0
01:17 9.4 7.0 85 990.0 3.1 N 5.4 0.0 0.0
01:18 9.4 7.0 85 990.0 4.5 N 4.5 0.0 0.0
01:19 9.4 7.0 85 989.9 2.2 SW 4.5 0.0 0.0
01:20 9.4 7.0 85 990.0 4.5 SE 4.5 0.0 0.0
01:21 9.4 7.0 85 990.0 4.5 SE 4.5 0.0 0.0
01:22 9.4 7.0 85 990.0 2.2 N 4.5 0.0 0.0
01:23 9.4 7.0 85 990.1 1.6 SW 4.5 0.0 0.0
01:24 9.4 7.0 85 990.2 2.2 NE 4.5 0.0 0.0
01:25 9.4 7.0 85 990.0 1.6 NW 4.5 0.0 0.0
01:26 9.4 7.0 85 990.1 1.6 NW 4.5 0.0 0.0
01:27 9.4 7.0 85 990.1 1.6 N 4.5 0.0 0.0
01:28 9.4 7.0 85 990.1 3.8 NW 4.5 0.0 0.0
01:30 9.4 7.0 85 989.9 3.1 NW 4.5 0.0 0.0
01:31 9.4 7.0 85 990.0 1.6 W 3.8 0.0 0.0
01:32 9.4 7.0 85 989.9 4.5 NE 4.5 0.0 0.0
01:33 9.4 7.0 85 990.0 3.1 N 4.5 0.0 0.0
01:34 9.3 6.9 85 990.0 3.1 NW 4.5 0.0 0.0
01:35 9.3 6.9 85 990.0 3.1 NW 4.5 0.0 0.0
01:36 9.3 6.9 85 990.0 2.2 N 4.5 0.0 0.0
01:37 9.3 7.1 86 990.0 3.1 NW 4.5 0.0 0.0
01:38 9.3 6.9 85 990.0 4.5 NW 4.5 0.0 0.0
01:39 9.3 7.1 86 989.9 6.0 N 6.0 0.0 0.0
01:40 9.3 7.1 86 989.9 1.6 SW 6.0 0.0 0.0
01:41 9.3 7.1 86 989.9 1.6 SW 6.0 0.0 0.0
01:42 9.3 7.1 86 989.8 4.5 NE 6.0 0.0 0.0
01:43 9.2 7.0 86 989.9 1.6 N 6.0 0.0 0.0
01:45 9.2 7.0 86 990.0 2.2 N 6.0 0.0 0.0
01:46 9.2 7.0 86 989.9 0.7 NW 6.0 0.0 0.0
01:47 9.2 7.0 86 990.0 2.2 NW 6.0 0.0 0.0
01:48 9.2 7.0 86 989.9 6.0 S 6.0 0.0 0.0
01:49 9.2 7.0 86 989.9 3.1 W 6.0 0.0 0.0
01:50 9.2 7.0 86 990.1 3.1 N 6.0 0.0 0.0
01:51 9.2 7.0 86 990.0 3.1 N 6.0 0.0 0.0
01:52 9.1 6.9 86 989.9 4.5 SW 6.0 0.0 0.0
01:53 9.1 6.9 86 990.0 3.1 NW 6.0 0.0 0.0
01:54 9.1 6.9 86 989.9 3.8 NW 6.0 0.0 0.0
01:55 9.2 7.0 86 989.8 3.1 WNW 6.0 0.0 0.0
01:56 9.2 7.0 86 989.9 3.8 W 6.0 0.0 0.0
01:57 9.2 7.0 86 989.9 2.2 E 6.0 0.0 0.0
01:59 9.2 7.0 86 990.0 3.8 NNW 4.5 0.0 0.0
02:00 9.2 7.0 86 989.8 3.8 NNW 4.5 0.0 0.0
02:01 9.2 7.0 86 990.0 3.8 NNW 4.5 0.0 0.0
02:02 9.2 7.0 86 989.8 3.8 NNW 4.5 0.0 0.0
02:03 9.2 7.0 86 989.8 3.8 NNW 3.8 0.0 0.0
02:04 9.2 7.0 86 989.9 3.8 NNW 3.8 0.0 0.0
02:05 9.2 7.0 86 989.9 3.8 NNW 3.8 0.0 0.0
02:06 9.3 7.1 86 989.9 1.6 S 3.8 0.0 0.0
02:07 9.3 7.1 86 989.8 3.8 W 3.8 0.0 0.0
02:08 9.3 7.1 86 989.9 3.1 NW 5.4 0.0 0.0
02:09 9.3 7.1 86 989.9 3.1 NW 5.4 0.0 0.0
02:10 9.3 7.1 86 989.8 3.1 NNE 5.4 0.0 0.0
02:11 9.4 7.2 86 989.8 2.2 N 5.4 0.0 0.0
02:13 9.4 7.3 87 989.7 5.4 NNE 5.4 0.0 0.0
02:14 9.4 7.3 87 989.6 5.4 SW 5.4 0.0 0.0
02:15 9.4 7.2 86 989.8 6.0 S 6.0 0.0 0.0
02:16 9.4 7.2 86 989.8 6.0 E 6.0 0.0 0.0
02:17 9.4 7.3 87 989.9 6.9 N 6.9 0.0 0.0
02:18 9.4 7.3 87 989.6 4.5 S 6.9 0.0 0.0
02:19 9.4 7.2 86 989.5 4.5 SE 6.9 0.0 0.0
02:20 9.4 7.3 87 989.6 6.0 NE 6.9 0.0 0.0
02:21 9.4 7.3 87 989.6 6.0 NE 6.9 0.0 0.0
02:22 9.4 7.3 87 989.7 3.8 NE 8.3 0.0 0.0
02:23 9.4 7.3 87 989.5 7.6 SE 8.3 0.0 0.0
02:24 9.4 7.2 86 989.7 3.8 NW 8.3 0.0 0.0
02:25 9.4 7.3 87 989.7 3.1 NE 8.3 0.0 0.0
02:26 9.5 7.3 86 989.5 3.8 N 8.3 0.0 0.0
02:28 9.4 7.3 87 989.6 3.1 S 8.3 0.0 0.0
02:29 9.4 7.3 87 989.6 1.6 SE 8.3 0.0 0.0
02:30 9.4 7.3 87 989.4 5.4 N 8.3 0.0 0.0
02:31 9.5 7.4 87 989.5 4.5 N 7.6 0.0 0.0
02:32 9.5 7.4 87 989.6 1.6 NNE 7.6 0.0 0.0
02:33 9.5 7.4 87 989.5 4.5 N 5.4 0.0 0.0
02:34 9.5 7.4 87 989.5 2.2 N 5.4 0.0 0.0
02:35 9.5 7.4 87 989.5 3.1 N 5.4 0.0 0.0
02:36 9.5 7.4 87 989.5 9.2 SW 9.2 0.0 0.0
02:37 9.5 7.4 87 989.5 4.5 NE 9.2 0.0 0.0
02:38 9.5 7.4 87 989.5 3.1 SW 9.2 0.0 0.0
02:39 9.5 7.4 87 989.4 6.0 E 9.2 0.0 0.0
02:40 9.5 7.4 87 989.3 2.2 NW 9.2 0.0 0.0
02:42 9.5 7.4 87 989.4 0.7 NE 9.2 0.0 0.0
02:43 9.5 7.4 87 989.3 2.2 SE 9.2 0.0 0.0
02:44 9.5 7.4 87 989.3 6.9 N 9.2 0.0 0.0
02:45 9.4 7.3 87 989.3 1.6 SE 9.2 0.0 0.0
02:46 9.4 7.3 87 989.4 5.4 NE 6.9 0.0 0.0
02:47 9.5 7.4 87 989.3 3.1 NE 6.9 0.0 0.0
02:48 9.5 7.4 87 989.3 3.1 NE 6.9 0.0 0.0
02:49 9.5 7.4 87 989.3 4.5 SE 6.9 0.0 0.0
02:50 9.5 7.4 87 989.2 3.1 SE 6.9 0.0 0.0
02:51 9.5 7.4 87 989.3 5.4 SE 6.9 0.0 0.0
02:52 9.5 7.4 87 989.1 1.6 NW 6.9 0.0 0.0
02:53 9.5 7.4 87 989.2 2.2 NE 6.9 0.0 0.0
02:54 9.5 7.4 87 989.2 3.1 E 6.0 0.0 0.0
02:56 9.5 7.4 87 989.2 0.7 S 6.0 0.0 0.0
02:57 9.5 7.4 87 989.2 2.2 NE 6.0 0.0 0.0
02:58 9.4 7.3 87 989.1 3.1 NW 6.0 0.0 0.0
02:59 9.5 7.4 87 989.1 5.4 E 6.0 0.0 0.0
03:00 9.5 7.4 87 989.2 5.4 E 6.0 0.0 0.0
03:01 9.5 7.4 87 989.1 5.4 E 6.0 0.0 0.0
03:02 9.5 7.4 87 989.2 5.4 E 5.4 0.0 0.0
03:03 9.5 7.4 87 989.1 5.4 E 5.4 0.0 0.0
03:04 9.5 7.4 87 989.2 5.4 E 5.4 0.0 0.0
03:05 9.5 7.4 87 989.0 5.4 E 5.4 0.0 0.0
03:06 9.5 7.4 87 989.0 3.8 SW 5.4 0.0 0.0
03:07 9.4 7.3 87 989.1 3.1 SE 5.4 0.0 0.0
03:08 9.4 7.3 87 989.2 2.2 ESE 5.4 0.0 0.0
03:09 9.5 7.4 87 989.0 1.6 NE 5.4 0.0 0.0
03:11 9.4 7.3 87 989.1 3.8 WSW 5.4 0.0 0.0
03:12 9.5 7.4 87 989.0 4.5 E 5.4 0.0 0.0
03:13 9.5 7.4 87 988.9 7.6 SE 7.6 0.0 0.0
03:14 9.5 7.4 87 989.0 3.1 NE 7.6 0.0 0.0
03:15 9.5 7.4 87 989.0 3.1 NE 7.6 0.0 0.0
03:16 9.5 7.4 87 989.0 3.1 SSE 7.6 0.0 0.0
03:17 9.5 7.4 87 989.0 9.2 NE 9.2 0.0 0.0
03:18 9.5 7.4 87 988.9 4.5 NE 9.2 0.0 0.0
03:19 9.5 7.4 87 988.9 7.6 E 9.2 0.0 0.0
03:20 9.5 7.4 87 989.0 3.8 SE 9.2 0.0 0.0
03:21 9.5 7.4 87 988.9 3.1 S 9.2 0.0 0.0
03:22 9.5 7.4 87 988.9 5.4 NW 9.2 0.0 0.0
03:23 9.5 7.4 87 988.9 1.6 SW 9.2 0.0 0.0
03:25 9.5 7.4 87 988.6 7.6 SE 9.2 0.0 0.0
03:26 9.5 7.4 87 988.8 9.8 S 9.8 0.0 0.0
03:27 9.5 7.4 87 988.7 5.4 SE 9.8 0.0 0.0
03:28 9.5 7.4 87 988.9 8.3 SE 9.8 0.0 0.0
03:29 9.5 7.4 87 988.9 9.2 SE 9.8 0.0 0.0
03:30 9.5 7.4 87 988.9 13.0 SE 13.0 0.0 0.0
03:31 9.4 7.3 87 988.9 13.0 SE 13.0 0.0 0.0
03:32 9.3 7.2 87 989.0 11.4 SE 13.0 0.0 0.0
03:33 9.3 7.2 87 988.9 13.0 S 13.0 0.0 0.0
03:34 9.2 7.2 87 988.9 12.1 SE 13.0 0.0 0.0
03:35 9.2 7.2 87 988.9 12.1 SE 13.0 0.0 0.0
03:36 9.1 7.1 87 989.1 10.7 S 13.0 0.0 0.0
03:37 9.0 7.0 87 988.9 9.2 SE 13.0 0.0 0.0
03:39 8.9 6.9 87 988.7 6.0 S 13.0 0.0 0.0
03:40 8.9 6.9 87 988.8 9.8 S 13.0 0.0 0.0
03:41 8.8 6.8 87 988.9 6.0 S 13.0 0.0 0.0
03:42 8.8 6.8 87 988.8 6.0 S 13.0 0.0 0.0
03:43 8.8 6.8 87 988.8 6.0 S 13.0 0.0 0.0
03:44 8.8 6.8 87 988.8 7.6 SE 12.1 0.0 0.0
03:45 8.7 6.7 87 988.8 9.8 SE 12.1 0.0 0.0
03:46 8.7 6.7 87 988.8 9.2 S 10.7 0.0 0.0
03:47 8.7 6.7 87 988.7 8.3 SE 10.7 0.0 0.0
03:48 8.7 6.7 87 988.8 6.9 SE 10.7 0.0 0.0
03:49 8.6 6.6 87 988.8 8.3 SE 9.8 0.0 0.0
03:50 8.6 6.6 87 988.7 9.2 SE 9.8 0.0 0.0
03:51 8.6 6.6 87 988.9 10.7 SSE 10.7 0.0 0.0
03:54 8.5 6.5 87 988.8 7.6 SE 10.7 0.0 0.0
03:55 8.5 6.5 87 988.8 9.8 SE 10.7 0.0 0.0
03:56 8.5 6.5 87 988.8 9.8 SE 10.7 0.0 0.0
03:57 8.5 6.5 87 988.7 9.2 S 10.7 0.0 0.0
03:58 8.5 6.5 87 988.7 8.3 S 10.7 0.0 0.0
03:59 8.5 6.5 87 988.7 9.2 SE 10.7 0.0 0.0
04:00 8.5 6.5 87 988.7 6.9 SW 10.7 0.0 0.0
04:01 8.5 6.5 87 988.7 6.9 SW 10.7 0.0 0.0
04:02 8.5 6.5 87 988.7 9.2 SE 9.8 0.0 0.0
04:03 8.5 6.5 87 988.7 9.2 SE 9.8 0.0 0.0
04:04 8.4 6.4 87 988.8 9.2 SE 9.8 0.0 0.0
04:05 8.4 6.4 87 988.7 7.6 SE 9.8 0.0 0.0
04:07 8.4 6.4 87 988.6 6.9 SE 9.2 0.0 0.0
04:08 8.4 6.4 87 988.8 6.9 S 9.2 0.0 0.0
04:09 8.4 6.4 87 988.6 6.0 SE 9.2 0.0 0.0
04:10 8.4 6.4 87 988.6 8.3 SE 9.2 0.0 0.1
04:11 8.4 6.4 87 988.6 8.3 SE 9.2 0.8 0.1
04:12 8.4 6.4 87 988.7 6.0 SE 9.2 0.8 0.1
04:13 8.4 6.5 88 988.6 6.0 SE 9.2 0.8 0.1
04:14 8.3 6.4 88 988.7 6.9 S 8.3 0.8 0.1
04:15 8.3 6.4 88 988.9 7.6 SE 8.3 0.8 0.1
04:16 8.3 6.4 88 988.6 8.3 SE 8.3 0.0 0.1
04:17 8.3 6.3 87 988.8 7.6 SE 9.8 0.0 0.1
04:18 8.3 6.4 88 988.7 8.3 SE 9.8 0.0 0.1
04:19 8.3 6.4 88 988.7 10.7 SE 11.4 0.0 0.1
04:20 8.3 6.4 88 988.6 7.6 S 11.4 0.0 0.1
04:22 8.2 6.3 88 988.8 9.8 SE 11.4 0.0 0.1
04:23 8.2 6.3 88 988.8 8.3 SE 11.4 0.0 0.1
04:24 8.2 6.3 88 988.8 7.6 SE 11.4 0.0 0.1
04:25 8.2 6.3 88 988.7 7.6 S 11.4 0.0 0.1
04:26 8.2 6.3 88 988.7 9.2 S 11.4 0.0 0.1
04:27 8.2 6.3 88 988.7 8.3 SE 11.4 0.0 0.1
04:28 8.2 6.3 88 988.7 8.3 SE 11.4 0.0 0.1
04:29 8.1 6.2 88 988.7 7.6 SE 10.7 0.0 0.1
04:30 8.1 6.2 88 988.7 9.2 SE 9.8 0.0 0.1
04:31 8.1 6.2 88 988.6 8.3 SE 9.8 0.0 0.1
04:32 8.1 6.2 88 988.8 9.2 S 9.8 0.0 0.1
04:33 8.1 6.2 88 988.7 7.6 SE 9.8 0.0 0.1
04:35 8.1 6.2 88 988.7 9.8 S 9.8 0.0 0.1
04:36 8.1 6.2 88 988.8 9.2 SE 9.8 0.0 0.1
04:37 8.0 6.1 88 988.8 11.4 SE 11.4 0.0 0.1
04:38 8.0 6.1 88 988.8 8.3 SE 11.4 0.0 0.1
04:39 8.0 6.1 88 988.8 8.3 SE 11.4 0.0 0.1
04:40 8.0 6.1 88 988.8 8.3 SE 11.4 0.0 0.1
04:41 8.0 6.1 88 988.8 8.3 SE 11.4 0.0 0.1
04:42 8.0 6.1 88 988.7 6.9 SE 11.4 0.0 0.1
04:43 8.0 6.1 88 988.7 4.5 SE 11.4 0.0 0.1
04:44 8.0 6.1 88 988.7 7.6 SE 11.4 0.0 0.1
04:45 8.0 6.1 88 988.6 6.9 SE 11.4 0.0 0.1
04:46 8.0 6.1 88 988.6 6.0 SE 11.4 0.0 0.1
04:47 8.0 6.1 88 988.6 4.5 SE 11.4 0.0 0.1
04:49 8.0 6.1 88 988.6 6.9 SE 8.3 0.0 0.1
04:50 7.9 6.0 88 988.6 4.5 SE 8.3 0.0 0.1
04:51 7.9 6.0 88 988.8 6.9 SE 7.6 0.0 0.1
04:52 7.9 6.0 88 988.7 7.6 SE 7.6 0.0 0.1
04:53 7.9 6.0 88 988.8 6.0 SE 7.6 0.0 0.1
04:54 7.9 6.0 88 988.7 8.3 SE 8.3 0.0 0.1
04:55 7.9 6.0 88 988.8 6.0 SE 8.3 0.0 0.1
04:56 7.9 6.0 88 988.8 7.6 SE 8.3 0.0 0.1
04:57 7.9 6.0 88 988.8 6.9 SE 8.3 0.0 0.1
04:58 7.9 6.0 88 988.7 6.9 SE 8.3 0.0 0.1
04:59 7.9 6.0 88 988.7 5.4 S 8.3 0.0 0.1
05:01 7.9 6.0 88 988.8 3.8 SE 8.3 0.0 0.1
05:02 7.9 6.0 88 988.7 4.5 SE 8.3 0.0 0.1
05:03 7.8 5.9 88 988.9 4.5 SE 8.3 0.0 0.1
05:04 7.8 5.9 88 988.8 5.4 ESE 7.6 0.0 0.1
05:06 7.8 5.9 88 988.7 5.4 E 6.9 0.0 0.1
05:07 7.8 5.9 88 988.7 5.4 SE 6.9 0.0 0.1
05:08 7.8 5.9 88 988.8 3.1 ENE 6.9 0.0 0.1
05:09 7.8 5.9 88 988.7 4.5 SE 6.9 0.0 0.1
05:10 7.8 5.9 88 988.8 3.8 SE 6.9 0.0 0.1
05:11 7.8 5.9 88 988.8 4.5 E 6.9 0.0 0.1
05:12 7.8 5.9 88 988.7 6.0 SE 6.9 0.0 0.1
05:13 7.7 5.8 88 988.8 3.1 SE 6.9 0.0 0.1
05:14 7.8 5.9 88 988.8 3.8 SE 6.9 0.0 0.1
05:15 7.8 5.9 88 988.8 3.1 NE 6.9 0.0 0.1
05:16 7.7 5.8 88 988.7 4.5 SE 6.0 0.0 0.1
05:17 7.7 5.8 88 988.9 3.1 SE 6.0 0.0 0.1
05:18 7.7 5.8 88 988.8 7.6 SE 7.6 0.0 0.1
05:20 7.8 5.9 88 988.8 6.0 SE 7.6 0.0 0.1
05:21 7.8 5.9 88 988.9 6.9 SE 7.6 0.0 0.1
05:22 7.8 6.1 89 988.8 6.9 E 7.6 0.0 0.1
05:23 7.8 6.1 89 988.8 6.9 E 7.6 0.0 0.1
05:24 7.8 6.1 89 988.8 7.6 SE 7.6 0.0 0.1
05:25 7.9 6.2 89 988.7 5.4 SE 9.8 0.0 0.1
05:26 7.9 6.2 89 988.7 6.9 SE 9.8 0.0 0.1
05:27 7.9 6.2 89 988.8 6.0 SE 9.8 0.0 0.1
05:28 7.9 6.2 89 988.9 4.5 SE 9.8 0.0 0.1
05:29 7.9 6.2 89 988.8 9.2 SSE 9.8 0.0 0.1
05:30 7.9 6.2 89 988.8 6.9 SE 9.8 0.0 0.1
05:31 8.0 6.3 89 988.9 4.5 SE 9.8 0.0 0.1
05:32 8.0 6.3 89 988.8 6.9 SE 9.8 0.0 0.1
05:34 8.0 6.3 89 988.8 5.4 SE 9.8 0.0 0.1
05:35 8.0 6.3 89 988.8 6.0 SE 9.2 0.0 0.1
05:36 8.0 6.3 89 988.8 5.4 SSE 9.2 0.0 0.1
05:37 8.0 6.3 89 988.9 5.4 S 9.2 0.0 0.1
05:38 8.0 6.3 89 988.9 9.2 SSE 9.2 0.0 0.1
05:39 8.1 6.4 89 988.9 7.6 SE 9.2 0.0 0.1
05:40 8.1 6.4 89 988.9 6.0 NE 9.2 0.0 0.1
05:41 8.1 6.4 89 988.8 4.5 SE 9.2 0.0 0.1
05:42 8.1 6.4 89 988.9 8.3 SE 9.2 0.0 0.1
05:43 8.1 6.4 89 988.9 7.6 S 9.2 0.0 0.1
05:44 8.1 6.4 89 988.9 8.3 S 9.2 0.0 0.1
05:45 8.1 6.4 89 989.1 8.3 SE 9.2 0.0 0.1
05:46 8.1 6.4 89 988.9 9.8 S 9.8 0.0 0.1
05:48 8.1 6.4 89 988.9 8.3 SE 9.8 0.0 0.1
05:49 8.1 6.4 89 988.8 7.6 SE 9.8 0.0 0.1
05:50 8.1 6.4 89 988.8 9.2 S 9.8 0.0 0.1
05:51 8.1 6.4 89 988.8 9.2 S 9.8 0.0 0.1
05:52 8.1 6.4 89 989.0 6.0 SE 9.8 0.0 0.1
05:53 8.1 6.4 89 989.0 10.7 S 10.7 0.0 0.1
05:54 8.1 6.4 89 989.0 9.8 SE 10.7 0.0 0.1
05:55 8.1 6.4 89 988.9 8.3 S 10.7 0.0 0.1
05:56 8.1 6.4 89 988.9 10.7 SE 10.7 0.0 0.1
05:57 8.1 6.4 89 989.0 7.6 S 12.1 0.0 0.1
05:58 8.1 6.4 89 989.1 9.8 SE 12.1 0.0 0.1
05:59 8.2 6.5 89 989.0 11.4 SSE 12.1 0.0 0.1
06:00 8.2 6.5 89 989.0 11.4 SSE 12.1 0.0 0.1
06:02 8.2 6.5 89 989.0 14.5 WSW 14.5 0.0 0.1
06:03 8.2 6.5 89 988.9 13.0 SE 14.5 0.0 0.1
06:04 8.2 6.5 89 989.0 7.6 S 14.5 0.0 0.1
06:05 8.2 6.5 89 989.0 9.2 S 14.5 0.0 0.1
06:06 8.2 6.5 89 989.0 13.0 S 14.5 0.0 0.1
06:07 8.2 6.5 89 989.0 13.0 SE 14.5 0.0 0.1
06:08 8.2 6.5 89 989.0 12.1 SE 14.5 0.0 0.1
06:09 8.2 6.5 89 989.1 15.2 S 15.2 0.0 0.1
06:10 8.1 6.4 89 989.1 12.1 SE 15.2 0.0 0.1
06:11 8.1 6.4 89 989.1 9.8 S 15.2 0.0 0.1
06:12 8.1 6.4 89 989.1 9.8 S 15.2 0.0 0.1
06:13 8.1 6.4 89 989.1 13.6 S 15.2 0.0 0.1
06:14 8.0 6.3 89 989.0 13.0 SSW 15.2 0.0 0.1
06:16 8.0 6.3 89 989.0 13.6 S 15.2 0.0 0.1
06:17 8.0 6.3 89 989.1 11.4 SE 15.2 0.0 0.1
06:18 8.0 6.3 89 989.4 14.5 S 15.2 0.0 0.1
06:19 8.0 6.3 89 989.4 14.5 S 15.2 0.0 0.1
06:20 8.0 6.3 89 989.2 13.6 SE 15.2 0.0 0.1
06:21 8.0 6.3 89 989.2 13.6 SE 15.2 0.0 0.1
06:22 8.0 6.3 89 989.3 14.5 SE 15.2 0.0 0.1
06:23 8.0 6.3 89 989.4 13.0 SE 15.2 0.0 0.1
06:24 8.0 6.3 89 989.3 15.9 SSW 15.9 0.0 0.1
06:25 8.0 6.3 89 989.4 13.0 ESE 15.9 0.0 0.1
06:26 8.0 6.3 89 989.3 12.1 S 15.9 0.0 0.1
06:27 8.0 6.3 89 989.2 12.1 S 15.9 0.0 0.1
06:28 8.0 6.3 89 989.2 16.8 SE 16.8 0.0 0.1
06:30 8.0 6.3 89 989.4 18.3 S 18.3 0.0 0.1
06:31 8.0 6.3 89 989.4 16.8 S 18.3 0.0 0.1
06:32 8.0 6.3 89 989.4 19.0 S 19.0 0.0 0.1
06:33 8.1 6.4 89 989.4 15.2 SE 19.0 0.0 0.1
06:34 8.1 6.4 89 989.4 12.1 SE 19.0 0.0 0.1
06:35 8.1 6.4 89 989.5 13.0 SE 19.0 0.0 0.1
06:36 8.1 6.4 89 989.4 12.1 SE 19.0 0.0 0.1
06:37 8.1 6.4 89 989.5 16.8 S 19.0 0.0 0.1
06:38 8.1 6.4 89 989.5 12.1 S 19.0 0.0 0.1
06:39 8.0 6.3 89 989.5 13.6 S 19.0 0.0 0.1
06:40 8.0 6.3 89 989.6 11.4 SE 19.0 0.0 0.1
06:41 8.0 6.3 89 989.7 14.5 S 19.0 0.0 0.1
06:42 8.0 6.3 89 989.5 14.5 SE 19.0 0.0 0.1
06:44 8.0 6.3 89 989.7 14.5 S 16.8 0.0 0.1
06:45 8.0 6.3 89 989.7 13.6 S 16.8 0.0 0.1
06:46 8.0 6.3 89 989.7 14.5 SW 16.8 0.0 0.1
06:47 8.0 6.3 89 989.7 14.5 SW 16.8 0.0 0.1
06:48 8.0 6.3 89 989.6 14.5 S 15.9 0.0 0.1
06:49 8.0 6.3 89 989.8 12.1 SE 15.9 0.0 0.1
06:50 8.0 6.3 89 989.7 14.5 SE 15.9 0.0 0.1
06:51 8.0 6.3 89 989.9 15.2 S 15.9 0.0 0.1
06:52 8.0 6.3 89 989.8 12.1 SE 15.9 0.0 0.1
06:53 8.0 6.3 89 989.9 14.5 S 15.9 0.0 0.1
06:54 8.1 6.4 89 989.9 10.7 S 15.9 0.0 0.1
06:55 8.1 6.4 89 989.7 13.0 SW 15.9 0.0 0.1
06:56 8.1 6.4 89 989.9 15.2 SE 15.9 0.0 0.1
06:58 8.1 6.4 89 989.9 13.6 S 19.0 0.0 0.1
06:59 8.1 6.4 89 989.9 15.9 S 19.0 0.0 0.1
07:00 8.1 6.4 89 990.0 15.9 S 19.0 0.0 0.1
07:01 8.1 6.4 89 989.9 15.9 S 19.0 0.0 0.1
07:02 8.1 6.4 89 990.0 14.5 SSE 19.0 0.0 0.1
07:03 8.1 6.4 89 990.0 14.5 SSE 19.0 0.0 0.1
07:04 8.1 6.2 88 990.0 14.5 S 19.0 0.0 0.1
07:05 8.2 6.3 88 990.0 13.6 SE 19.0 0.0 0.1
07:06 8.2 6.3 88 990.1 13.6 S 19.0 0.0 0.1
07:07 8.2 6.3 88 990.0 21.3 SE 21.3 0.0 0.1
07:08 8.2 6.3 88 990.0 13.6 S 21.3 0.0 0.1
07:09 8.2 6.3 88 990.0 15.2 S 21.3 0.0 0.1
07:10 8.2 6.3 88 990.3 17.4 S 21.3 0.0 0.1
07:11 8.2 6.3 88 990.1 13.0 S 21.3 0.0 0.1
07:12 8.3 6.4 88 990.2 13.6 S 21.3 0.0 0.1
07:14 8.3 6.4 88 990.2 15.2 S 21.3 0.0 0.1
07:15 8.3 6.3 87 990.3 10.7 S 21.3 0.0 0.1
07:16 8.3 6.4 88 990.4 13.0 SE 21.3 0.0 0.1
07:17 8.3 6.4 88 990.3 14.5 S 18.3 0.0 0.1
07:18 8.3 6.4 88 990.2 12.1 SW 17.4 0.0 0.1
07:19 8.3 6.3 87 990.4 12.1 SW 17.4 0.0 0.1
07:20 8.3 6.3 87 990.3 9.2 SW 17.4 0.0 0.1
07:21 8.3 6.3 87 990.3 9.8 SW 15.2 0.0 0.1
07:22 8.3 6.3 87 990.5 11.4 SE 15.2 0.0 0.1
07:23 8.3 6.3 87 990.6 8.3 S 15.2 0.0 0.1
07:24 8.3 6.3 87 990.5 15.2 S 15.2 0.0 0.1
07:25 8.3 6.3 87 990.4 14.5 S 15.2 0.0 0.1
07:26 8.3 6.3 87 990.7 16.8 SE 16.8 0.0 0.1
07:28 8.3 6.3 87 990.4 13.0 S 16.8 0.0 0.1
07:29 8.4 6.4 87 990.5 15.9 SE 16.8 0.0 0.1
07:30 8.4 6.4 87 990.6 13.6 S 16.8 0.0 0.1
07:31 8.4 6.4 87 990.5 19.7 SE 19.7 0.0 0.1
07:32 8.4 6.4 87 990.7 15.9 S 19.7 0.0 0.1
07:33 8.3 6.3 87 990.7 15.9 S 19.7 0.0 0.1
07:34 8.4 6.4 87 990.5 16.8 S 19.7 0.0 0.1
07:35 8.4 6.4 87 990.7 13.6 SE 19.7 0.0 0.1
07:36 8.4 6.4 87 990.9 15.9 SE 19.7 0.0 0.1
07:37 8.4 6.4 87 990.8 19.7 S 19.7 0.0 0.1
07:38 8.4 6.4 87 990.8 15.9 SE 19.7 0.0 0.1
07:39 8.4 6.4 87 990.8 16.8 SW 19.7 0.0 0.1
07:40 8.4 6.4 87 990.8 15.9 S 19.7 0.0 0.1
07:42 8.4 6.4 87 991.0 15.9 S 19.7 0.0 0.1
07:43 8.4 6.4 87 990.9 15.9 S 19.7 0.0 0.1
07:44 8.5 6.5 87 991.1 12.1 SSW 19.7 0.0 0.1
07:45 8.5 6.5 87 991.0 13.6 S 19.7 0.0 0.1
07:46 8.5 6.5 87 991.0 16.8 SE 19.7 0.0 0.1
07:47 8.5 6.5 87 990.9 19.0 SW 19.7 0.0 0.1
07:48 8.5 6.5 87 991.1 15.2 S 19.0 0.0 0.1
07:49 8.5 6.5 87 991.0 16.8 S 19.0 0.0 0.1
07:50 8.5 6.5 87 991.1 17.4 S 19.0 0.0 0.1
07:51 8.5 6.5 87 991.0 19.0 SW 19.0 0.0 0.1
07:52 8.5 6.3 86 991.0 15.9 S 19.0 0.0 0.1
07:53 8.5 6.3 86 991.1 9.8 SW 19.0 0.0 0.1
07:54 8.5 6.3 86 991.2 13.0 S 19.0 0.0 0.1
07:56 8.5 6.3 86 991.3 15.2 SE 19.0 0.0 0.1
07:57 8.5 6.3 86 991.2 18.3 S 19.0 0.0 0.1
07:58 8.5 6.3 86 991.2 14.5 SE 19.0 0.0 0.1
07:59 8.5 6.3 86 991.2 16.8 SSW 19.0 0.0 0.1
08:00 8.5 6.3 86 991.4 16.8 SW 19.0 0.0 0.1
08:01 8.5 6.3 86 991.3 16.8 SW 18.3 0.0 0.1
08:02 8.6 6.4 86 991.4 14.5 S 18.3 0.0 0.1
08:03 8.6 6.4 86 991.3 14.5 SSW 18.3 0.0 0.1
08:04 8.6 6.2 85 991.4 13.0 S 18.3 0.0 0.1
08:05 8.6 6.2 85 991.4 15.2 S 18.3 0.0 0.1
08:06 8.6 6.2 85 991.4 19.0 SW 19.0 0.0 0.1
08:07 8.6 6.2 85 991.5 18.3 SW 19.0 0.0 0.1
08:08 8.7 6.3 85 991.4 14.5 S 19.0 0.0 0.1
08:10 8.7 6.3 85 991.5 17.4 SW 19.0 0.0 0.1
08:11 8.8 6.4 85 991.4 17.4 S 19.0 0.0 0.1
08:12 8.8 6.4 85 991.5 19.0 S 19.0 0.0 0.1
08:13 8.8 6.4 85 991.6 14.5 SE 19.0 0.0 0.1
08:14 8.8 6.4 85 991.6 14.5 S 19.0 0.0 0.1
08:15 8.8 6.4 85 991.6 13.0 S 19.0 0.0 0.1
08:16 8.9 6.5 85 991.5 15.9 SW 19.0 0.0 0.1
08:17 8.9 6.5 85 991.7 15.9 SE 19.0 0.0 0.1
08:18 8.9 6.5 85 991.6 16.8 S 19.0 0.0 0.1
08:19 8.9 6.5 85 991.5 19.7 SW 19.7 0.0 0.1
08:20 9.0 6.6 85 991.5 16.8 S 19.7 0.0 0.1
08:21 9.0 6.6 85 991.7 14.5 S 19.7 0.0 0.1
08:22 9.0 6.6 85 991.7 15.2 SW 19.7 0.0 0.1
08:24 9.0 6.6 85 991.8 14.5 SW 19.7 0.0 0.1
08:25 9.0 6.4 84 991.7 17.4 SE 19.7 0.0 0.1
08:26 9.0 6.4 84 991.7 17.4 SE 19.7 0.0 0.1
08:27 9.0 6.4 84 991.6 12.1 SE 19.7 0.0 0.1
08:28 9.1 6.5 84 991.7 13.6 SW 19.7 0.0 0.1
08:29 9.1 6.5 84 991.8 17.4 S 17.4 0.0 0.1
08:30 9.1 6.5 84 991.8 17.4 S 17.4 0.0 0.1
08:31 9.2 6.6 84 991.8 15.9 S 17.4 0.0 0.1
08:32 9.2 6.8 85 991.8 13.6 S 17.4 0.0 0.1
08:33 9.3 6.9 85 991.9 13.6 S 17.4 0.0 0.1
08:34 9.3 6.9 85 991.9 15.9 S 17.4 0.0 0.1
08:36 9.3 6.9 85 991.8 17.4 SE 17.4 0.0 0.1
08:37 9.3 6.9 85 991.7 16.8 S 17.4 0.0 0.1
08:38 9.4 6.8 84 991.8 12.1 S 17.4 0.0 0.1
08:40 9.4 6.8 84 991.9 12.1 S 17.4 0.0 0.1
08:41 9.4 6.8 84 991.8 15.2 S 17.4 0.0 0.1
08:42 9.4 6.8 84 991.9 16.8 S 17.4 0.0 0.1
08:43 9.4 6.8 84 991.8 14.5 S 17.4 0.0 0.1
08:44 9.5 7.1 85 992.0 18.3 SW 19.7 0.0 0.1
08:45 9.5 6.9 84 991.9 15.2 S 19.7 0.0 0.1
08:46 9.5 7.1 85 992.0 14.5 SW 19.7 0.0 0.1
08:47 9.5 6.9 84 992.0 14.5 S 19.7 0.0 0.1
08:48 9.6 7.0 84 991.9 17.4 SW 19.7 0.0 0.1
08:49 9.6 7.0 84 992.0 15.9 S 19.7 0.0 0.1
08:50 9.7 7.1 84 992.1 14.5 S 19.7 0.0 0.1
08:51 9.7 7.1 84 991.9 17.4 S 19.7 0.0 0.1
08:52 9.7 7.1 84 992.0 18.3 S 19.7 0.0 0.1
08:54 9.7 7.1 84 992.1 14.5 S 20.6 0.0 0.1
08:55 9.7 7.0 83 992.0 16.8 S 20.6 0.0 0.1
08:56 9.7 7.0 83 992.1 15.9 S 20.6 0.0 0.1
08:58 9.7 7.0 83 992.1 18.3 S 20.6 0.0 0.1
08:59 9.7 7.0 83 992.1 13.0 S 20.6 0.0 0.1
09:00 9.7 7.0 83 992.1 13.0 S 20.6 0.0 0.1
09:01 9.7 7.0 83 992.3 13.0 S 20.6 0.0 0.1
09:02 9.8 7.1 83 992.3 15.9 S 20.6 0.0 0.1
09:03 9.8 7.1 83 992.2 17.4 S 20.6 0.0 0.1
09:04 9.8 7.1 83 992.2 18.3 SW 19.0 0.0 0.1
09:05 9.8 6.9 82 992.2 15.2 SE 19.0 0.0 0.1
09:06 9.8 6.9 82 992.2 13.6 S 19.0 0.0 0.1
09:07 9.8 6.9 82 992.3 15.2 S 19.0 0.0 0.1
09:08 9.8 6.9 82 992.3 15.9 SW 19.0 0.0 0.1
09:09 9.8 6.9 82 992.3 13.6 S 19.0 0.0 0.1
09:10 9.8 6.9 82 992.4 17.4 SE 20.6 0.0 0.1
09:11 9.8 6.9 82 992.3 17.4 SE 20.6 0.0 0.1
09:13 10.0 7.2 83 992.2 15.2 SW 20.6 0.0 0.1
09:14 10.0 7.2 83 992.4 11.4 S 20.6 0.0 0.1
09:15 10.0 7.2 83 992.4 13.0 ESE 20.6 0.0 0.1
09:16 10.1 7.3 83 992.4 14.5 SE 20.6 0.0 0.1
09:17 10.1 7.3 83 992.5 16.8 S 20.6 0.0 0.1
09:18 10.1 7.3 83 992.6 14.5 SE 20.6 0.0 0.1
09:19 10.1 7.3 83 992.3 16.8 S 20.6 0.0 0.1
09:20 10.2 7.4 83 992.4 18.3 S 18.3 0.0 0.1
09:21 10.2 7.3 82 992.5 16.8 S 18.3 0.0 0.1
09:22 10.2 7.3 82 992.5 15.2 S 18.3 0.0 0.1
09:23 10.2 7.3 82 992.5 21.3 S 21.3 0.0 0.1
09:24 10.2 7.3 82 992.5 20.6 S 21.3 0.0 0.1
09:25 10.2 7.3 82 992.5 20.6 SE 21.3 0.0 0.1
09:26 10.2 7.3 82 992.5 16.8 SE 21.3 0.0 0.1
09:28 10.2 7.3 82 992.5 16.8 S 21.3 0.0 0.1
09:29 10.2 7.3 82 992.5 17.4 SW 21.3 0.0 0.1
09:30 10.2 7.3 82 992.4 17.4 SW 21.3 0.0 0.1
09:31 10.3 7.4 82 992.5 16.8 S 21.3 0.0 0.1
09:32 10.3 7.4 82 992.5 19.0 S 21.3 0.0 0.1
09:33 10.4 7.5 82 992.5 22.8 S 22.8 0.0 0.1
09:34 10.5 7.6 82 992.4 15.2 S 22.8 0.0 0.1
09:35 10.5 7.6 82 992.5 16.8 S 22.8 0.0 0.1
09:36 10.5 7.6 82 992.6 22.1 SE 22.8 0.0 0.1
09:37 10.5 7.6 82 992.6 21.3 SW 22.8 0.0 0.1
09:38 10.6 7.7 82 992.5 20.6 S 22.8 0.0 0.1
09:39 10.6 7.7 82 992.6 19.0 S 22.8 0.0 0.1
09:40 10.6 7.5 81 992.7 19.7 S 22.8 0.0 0.1
09:41 10.6 7.5 81 992.6 12.1 WSW 22.8 0.0 0.1
09:43 10.6 7.5 81 992.8 17.4 S 22.8 0.0 0.1
09:44 10.5 7.2 80 992.7 19.0 S 22.8 0.0 0.1
09:45 10.5 7.2 80 992.8 18.3 S 22.8 0.0 0.1
09:46 10.4 6.9 79 992.8 21.3 SW 22.8 0.0 0.1
09:47 10.4 6.9 79 992.9 15.9 SW 22.8 0.0 0.1
09:48 10.3 6.6 78 992.8 18.3 SW 22.8 0.0 0.1
09:49 10.3 6.6 78 992.9 15.2 SSW 22.8 0.0 0.1
09:50 10.3 6.6 78 992.9 19.0 SE 22.8 0.0 0.1
09:51 10.4 6.7 78 993.0 16.8 SW 22.8 0.0 0.1
09:52 10.4 6.7 78 992.9 19.0 S 21.3 0.0 0.1
09:53 10.4 6.7 78 992.8 15.9 SW 21.3 0.0 0.1
09:54 10.5 6.8 78 992.9 15.9 S 21.3 0.0 0.1
09:55 10.5 6.8 78 993.1 15.9 S 21.3 0.0 0.1
09:56 10.5 6.8 78 993.0 17.4 S 21.3 0.0 0.1
09:58 10.7 6.8 77 993.0 16.8 SW 19.0 0.0 0.1
09:59 10.7 6.8 77 993.0 19.0 S 19.0 0.0 0.1
10:00 10.7 6.8 77 993.1 19.0 S 19.0 0.0 0.1
10:03 10.8 6.7 76 993.2 16.8 S 19.0 0.0 0.1
10:04 10.8 6.7 76 993.1 16.8 S 19.0 0.0 0.1
10:05 10.8 6.7 76 993.2 15.2 S 19.0 0.0 0.1
10:06 10.8 6.5 75 993.3 15.2 S 19.0 0.0 0.1
10:07 10.7 6.5 75 993.3 15.9 S 19.0 0.0 0.1
10:08 10.6 6.4 75 993.2 13.0 S 19.0 0.0 0.1
10:09 10.6 6.4 75 993.3 15.2 SSE 19.0 0.0 0.1
10:10 10.5 6.1 74 993.2 14.5 SE 19.0 0.0 0.1
10:11 10.5 6.1 74 993.4 12.1 S 19.0 0.0 0.1
10:12 10.4 6.0 74 993.4 10.7 S 18.3 0.0 0.1
10:13 10.4 6.0 74 993.4 14.5 SE 18.3 0.0 0.1
10:14 10.3 5.9 74 993.5 9.2 S 18.3 0.0 0.1
10:15 10.2 5.8 74 993.5 13.0 S 15.9 0.0 0.1
10:17 10.2 6.0 75 993.6 13.6 S 15.9 0.0 0.1
10:18 10.2 6.0 75 993.5 19.0 WNW 19.0 0.0 0.1
10:19 10.3 6.1 75 993.7 19.0 S 19.7 0.0 0.1
10:20 10.3 6.3 76 993.5 15.9 S 19.7 0.0 0.1
10:21 10.3 6.3 76 993.8 19.0 S 19.7 0.0 0.1
10:22 10.4 6.4 76 993.8 18.3 S 19.7 0.0 0.1
10:23 10.5 6.5 76 993.7 16.8 S 19.7 0.0 0.1
10:24 10.5 6.3 75 994.0 18.3 SE 19.7 0.0 0.1
10:25 10.5 6.3 75 994.0 18.3 SE 19.7 0.0 0.1
10:26 10.6 6.2 74 993.8 19.0 S 22.1 0.0 0.1
10:27 10.7 6.3 74 993.8 19.0 SE 22.1 0.0 0.1
10:28 10.7 6.3 74 993.8 20.6 S 22.1 0.0 0.1
10:29 10.7 6.3 74 993.9 22.1 S 22.1 0.0 0.1
10:31 10.9 6.3 73 993.8 20.6 SE 22.1 0.0 0.1
10:32 10.9 6.3 73 993.8 15.2 SE 22.1 0.0 0.1
10:33 11.0 6.3 73 993.8 14.5 SW 22.1 0.0 0.1
10:34 11.0 6.3 73 993.8 17.4 SW 22.1 0.0 0.1
10:35 11.1 6.4 73 993.9 11.4 S 22.1 0.0 0.1
10:36 11.1 6.4 73 993.9 14.5 S 22.1 0.0 0.1
10:37 11.1 6.4 73 993.9 15.9 S 22.1 0.0 0.1
10:38 11.1 6.2 72 994.0 19.7 SW 22.1 0.0 0.1
10:39 11.1 6.2 72 993.9 21.3 SE 21.3 0.0 0.1
10:40 11.1 6.0 71 993.9 14.5 SE 21.3 0.0 0.1
10:41 11.1 6.2 72 994.0 18.3 S 21.3 0.0 0.1
10:42 11.1 6.0 71 994.0 13.6 S 21.3 0.0 0.1
10:43 11.1 6.2 72 994.0 15.9 S 21.3 0.0 0.1
10:44 11.2 6.3 72 994.0 12.1 S 21.3 0.0 0.1
10:46 11.2 6.3 72 994.0 15.2 SW 21.3 0.0 0.1
10:47 11.4 6.5 72 994.1 17.4 SW 21.3 0.0 0.1
10:48 11.4 6.5 72 994.2 22.1 SE 22.1 0.0 0.1
10:49 11.4 6.3 71 994.2 18.3 SW 22.1 0.0 0.1
10:50 11.4 6.3 71 994.2 19.0 S 22.1 0.0 0.1
10:51 11.4 6.3 71 994.4 19.7 WSW 22.8 0.0 0.1
10:52 11.3 6.2 71 994.3 19.7 SW 22.8 0.0 0.1
10:53 11.3 6.2 71 994.3 19.7 SW 22.8 0.0 0.1
10:54 11.3 6.2 71 994.4 16.8 S 22.8 0.0 0.1
10:55 11.2 6.1 71 994.3 19.7 S 22.8 0.0 0.1
10:56 11.2 6.1 71 994.4 22.8 S 22.8 0.0 0.1
10:57 11.2 6.1 71 994.3 16.8 SE 22.8 0.0 0.1
10:58 11.1 6.0 71 994.3 16.8 S 22.8 0.0 0.1
11:00 11.1 6.0 71 994.5 19.0 S 22.8 0.0 0.1
11:01 11.1 6.0 71 994.4 19.0 S 22.8 0.0 0.1
11:02 11.1 6.0 71 994.5 21.3 S 22.8 0.0 0.1
11:03 11.0 5.9 71 994.5 15.2 S 22.8 0.0 0.1
11:04 11.0 5.9 71 994.6 16.8 S 22.8 0.0 0.1
11:05 11.0 5.9 71 994.6 19.0 SW 22.8 0.0 0.1
11:07 11.0 5.9 71 994.6 17.4 S 21.3 0.0 0.1
11:08 11.0 5.9 71 994.7 16.8 S 21.3 0.0 0.1
11:09 10.9 5.9 71 994.7 18.3 SE 21.3 0.0 0.1
11:10 10.9 5.9 71 994.7 15.2 S 21.3 0.0 0.1
11:11 11.0 6.1 72 994.6 13.0 S 21.3 0.0 0.1
11:12 11.0 6.1 72 994.8 15.9 SE 19.7 0.0 0.1
11:13 11.0 6.1 72 994.5 19.0 S 19.7 0.0 0.1
11:14 11.0 6.1 72 994.9 20.6 S 20.6 0.0 0.1
11:15 11.0 6.1 72 994.7 19.0 S 20.6 0.0 0.1
11:16 11.0 6.1 72 994.7 15.9 SE 20.6 0.0 0.1
11:17 10.9 6.1 72 994.8 20.6 S 20.6 0.0 0.1
11:18 10.9 5.9 71 994.8 17.4 S 21.3 0.0 0.1
11:19 10.9 5.9 71 994.7 15.9 S 21.3 0.0 0.1
11:21 10.9 6.1 72 994.8 18.3 S 22.1 0.0 0.1
11:22 10.9 6.1 72 994.9 19.7 S 22.1 0.0 0.1
11:23 10.9 6.1 72 994.9 15.2 S 22.1 0.0 0.1
11:24 10.9 6.1 72 994.9 16.8 SE 22.1 0.0 0.1
11:25 11.0 6.1 72 994.8 18.3 SE 22.1 0.0 0.1
11:26 11.0 6.1 72 994.7 19.0 S 22.1 0.0 0.1
11:27 11.0 6.1 72 994.9 13.0 S 22.1 0.0 0.1
11:28 11.0 6.1 72 994.9 19.7 SW 22.1 0.0 0.1
11:29 11.0 6.1 72 994.9 19.7 SW 22.1 0.0 0.1
11:30 11.0 6.1 72 994.8 14.5 S 19.7 0.0 0.1
11:31 11.0 6.1 72 995.0 15.2 SW 19.7 0.0 0.1
11:32 11.0 6.1 72 994.9 11.4 S 19.7 0.0 0.1
11:33 11.0 6.1 72 994.9 15.2 SE 19.7 0.0 0.1
11:35 11.0 6.1 72 994.9 19.7 S 19.7 0.0 0.1
11:36 11.0 6.1 72 994.9 17.4 S 19.7 0.0 0.1
11:37 11.0 6.3 73 995.0 19.7 S 19.7 0.0 0.1
11:38 11.1 6.4 73 994.9 14.5 S 19.7 0.0 0.1
11:39 11.3 6.8 74 994.9 14.5 S 19.7 0.0 0.1
11:40 11.3 6.8 74 994.9 15.2 S 19.7 0.0 0.1
11:41 11.4 6.9 74 995.0 18.3 SW 19.7 0.0 0.1
11:42 11.5 7.0 74 994.8 14.5 S 19.7 0.0 0.1
11:43 11.6 7.1 74 994.8 16.8 S 19.7 0.0 0.1
11:44 11.7 7.2 74 995.0 18.3 S 19.7 0.0 0.1
11:45 11.8 7.1 73 994.8 20.6 SE 20.6 0.0 0.1
11:46 11.8 7.1 73 995.0 19.0 SW 20.6 0.0 0.1
11:47 11.9 7.0 72 995.1 17.4 SW 20.6 0.0 0.1
11:48 11.9 6.8 71 995.1 18.3 SW 20.6 0.0 0.1
11:50 11.9 6.8 71 995.0 17.4 SW 20.6 0.0 0.1
11:51 11.9 6.6 70 995.1 19.7 SE 21.3 0.0 0.1
11:52 12.0 6.9 71 995.0 21.3 S 21.3 0.0 0.1
11:53 12.0 6.9 71 995.0 20.6 SE 21.3 0.0 0.1
11:54 12.1 7.0 71 995.2 22.1 S 22.1 0.0 0.1
11:55 12.1 6.6 69 995.2 17.4 S 22.1 0.0 0.1
11:56 12.1 6.6 69 995.1 18.3 S 22.1 0.0 0.1
11:57 12.1 6.6 69 995.1 19.0 S 22.1 0.0 0.1
11:58 12.1 6.8 70 995.0 17.4 SE 22.1 0.0 0.1
11:59 12.1 6.8 70 995.1 15.9 S 22.1 0.0 0.1
12:00 12.1 6.8 70 995.1 14.5 S 22.1 0.0 0.1
12:01 12.1 6.8 70 995.2 14.5 S 22.1 0.0 0.1
12:02 12.2 6.9 70 995.2 19.0 S 22.1 0.0 0.1
12:03 12.3 7.0 70 995.2 17.4 S 22.1 0.0 0.1
12:04 12.3 7.2 71 995.2 20.6 S 22.1 0.0 0.1
12:05 12.4 7.1 70 995.4 22.8 S 22.8 0.0 0.1
12:06 12.4 7.1 70 995.2 19.7 SW 22.8 0.0 0.1
12:07 12.4 6.9 69 995.4 19.7 S 22.8 0.0 0.1
12:08 12.5 7.0 69 995.2 19.7 SE 22.8 0.0 0.1
12:09 12.5 7.2 70 995.2 14.5 SW 22.8 0.0 0.1
12:10 12.5 7.2 70 995.3 20.6 SE 22.8 0.0 0.1
12:11 12.6 7.3 70 995.2 18.3 WNW 22.8 0.0 0.1
12:12 12.6 6.9 68 995.4 19.0 S 22.8 0.0 0.1
12:13 12.5 6.5 67 995.4 14.5 S 22.8 0.0 0.1
12:14 12.5 6.5 67 995.3 20.6 SW 23.5 0.0 0.1
12:15 12.4 6.4 67 995.4 18.3 SW 23.5 0.0 0.1
12:16 12.4 6.4 67 995.4 17.4 SW 23.5 0.0 0.1
12:17 12.3 6.4 67 995.5 15.2 S 23.5 0.0 0.1
12:18 12.3 6.4 67 995.4 19.0 S 23.5 0.0 0.1
12:19 12.2 6.3 67 995.5 17.4 S 23.5 0.0 0.1
12:20 12.1 5.9 66 995.3 18.3 SE 23.5 0.0 0.1
12:21 12.1 5.9 66 995.3 15.9 S 23.5 0.0 0.1
12:22 12.1 6.2 67 995.5 16.8 S 23.5 0.0 0.1
12:23 12.1 6.4 68 995.5 22.1 SE 23.5 0.0 0.1
12:24 12.1 6.4 68 995.4 19.7 S 22.1 0.0 0.1
12:25 12.1 6.4 68 995.4 19.7 S 22.1 0.0 0.1
12:26 12.2 6.5 68 995.5 19.0 SE 22.1 0.0 0.1
12:27 12.2 6.5 68 995.5 17.4 S 22.1 0.0 0.1
12:28 12.2 6.5 68 995.4 17.4 SW 22.1 0.0 0.1
12:29 12.3 6.6 68 995.4 16.8 SE 22.1 0.0 0.1
12:30 12.3 6.4 67 995.5 18.3 SE 22.1 0.0 0.1
12:31 12.3 6.4 67 995.5 14.5 WSW 22.1 0.0 0.1
12:32 12.3 6.4 67 995.6 16.8 SW 22.1 0.0 0.1
12:33 12.3 6.4 67 995.6 17.4 SW 22.1 0.0 0.1
12:34 12.3 6.6 68 995.5 15.2 S 22.1 0.0 0.1
12:35 12.4 6.7 68 995.6 16.8 NW 22.1 0.0 0.1
12:36 12.4 6.7 68 995.6 19.0 NE 19.0 0.0 0.1
12:37 12.3 6.1 66 995.5 21.3 SW 21.3 0.0 0.1
12:38 12.4 6.4 67 995.6 19.0 S 21.3 0.0 0.1
12:39 12.4 6.7 68 995.6 16.8 S 21.3 0.0 0.1
12:40 12.5 6.8 68 995.7 17.4 S 21.3 0.0 0.1
12:41 12.6 6.9 68 995.7 22.8 S 22.8 0.0 0.1
12:42 12.6 6.4 66 995.8 18.3 S 22.8 0.0 0.1
12:43 12.6 6.9 68 995.7 16.8 SE 22.8 0.0 0.1
12:44 12.7 6.9 68 995.8 18.3 S 22.8 0.0 0.1
12:45 12.7 6.5 66 995.8 22.1 SW 22.8 0.0 0.1
12:46 12.6 6.4 66 995.6 22.1 S 22.8 0.0 0.1
12:47 12.6 6.4 66 995.9 19.7 S 22.8 0.0 0.1
12:48 12.5 6.3 66 995.8 19.0 SSW 22.8 0.0 0.1
12:49 12.5 6.3 66 995.8 17.4 S 22.8 0.0 0.1
12:50 12.5 6.5 67 995.7 13.0 S 22.8 0.0 0.1
12:51 12.5 6.5 67 995.7 18.3 S 22.1 0.0 0.1
12:52 12.5 6.5 67 995.9 15.2 S 22.1 0.0 0.1
12:53 12.5 6.5 67 995.9 15.2 S 22.1 0.0 0.1
12:54 12.7 6.7 67 995.9 19.7 SE 22.1 0.0 0.1
12:55 12.5 6.5 67 995.8 19.7 SW 22.1 0.0 0.1
12:56 12.5 6.8 68 995.9 15.9 S 22.1 0.0 0.1
12:57 12.5 6.5 67 995.8 13.6 S 19.7 0.0 0.1
12:58 12.7 7.4 70 995.8 13.6 SW 19.7 0.0 0.1
12:59 12.8 7.3 69 995.9 19.0 SW 19.7 0.0 0.1
13:00 12.9 7.1 68 995.9 21.3 SE 21.3 0.0 0.1
13:01 12.9 7.1 68 996.0 21.3 SE 21.3 0.0 0.1
13:02 13.1 6.9 66 996.0 21.3 SW 21.3 0.0 0.1
13:03 13.1 6.4 64 996.1 22.8 S 22.8 0.0 0.1
13:04 13.0 6.4 64 996.1 18.3 SW 22.8 0.0 0.1
13:05 13.0 6.4 64 996.1 22.1 S 22.8 0.0 0.1
13:06 13.0 6.6 65 996.0 20.6 S 22.8 0.0 0.1
13:07 13.0 6.4 64 996.0 22.1 S 22.8 0.0 0.1
13:08 12.8 6.2 64 996.1 16.8 S 22.8 0.0 0.1
13:09 12.8 6.2 64 996.1 16.8 S 22.8 0.0 0.1
13:10 12.7 6.1 64 996.0 16.8 N 22.8 0.0 0.1
13:11 12.7 6.3 65 996.0 19.0 N 22.8 0.0 0.1
13:12 12.6 6.0 64 996.2 19.7 S 22.8 0.0 0.1
13:13 12.6 6.2 65 996.2 17.4 SW 22.8 0.0 0.1
13:14 12.6 6.9 68 996.1 14.5 S 22.1 0.0 0.1
13:15 12.8 7.0 68 996.1 16.8 NNE 22.1 0.0 0.1
13:16 12.8 6.8 67 996.1 17.4 SE 22.1 0.0 0.1
13:17 12.9 6.9 67 996.2 11.4 S 21.3 0.0 0.1
13:18 12.9 6.9 67 996.1 15.9 S 19.7 0.0 0.1
13:19 12.9 6.5 65 996.2 14.5 WSW 19.7 0.0 0.1
13:20 12.9 6.5 65 996.2 16.8 S 19.7 0.0 0.1
13:21 12.9 6.5 65 996.4 17.4 SW 19.7 0.0 0.1
13:22 12.8 6.2 64 996.2 19.7 S 19.7 0.0 0.1
13:23 12.8 5.9 63 996.1 15.2 S 19.7 0.0 0.1
13:24 12.8 5.9 63 996.1 19.7 S 19.7 0.0 0.1
13:25 12.7 5.8 63 996.2 13.6 SE 19.7 0.0 0.1
13:26 12.5 5.7 63 996.4 16.8 S 19.7 0.0 0.1
13:27 12.5 5.9 64 996.3 19.7 SW 19.7 0.0 0.1
13:28 12.4 5.8 64 996.2 17.4 SE 19.7 0.0 0.1
13:29 12.3 5.7 64 996.1 16.8 S 19.7 0.0 0.1
13:30 12.3 5.7 64 996.3 18.3 SE 19.7 0.0 0.1
13:31 12.3 5.7 64 996.3 19.7 SE 19.7 0.0 0.1
13:32 12.4 5.8 64 996.3 17.4 SE 19.7 0.0 0.1
13:33 12.4 6.0 65 996.5 22.8 S 22.8 0.0 0.1
13:34 12.4 6.0 65 996.4 19.0 S 22.8 0.0 0.1
13:35 12.6 6.0 64 996.5 21.3 S 22.8 0.0 0.1
13:36 12.7 6.1 64 996.4 15.2 SW 22.8 0.0 0.1
13:37 12.7 6.1 64 996.4 15.2 SW 22.8 0.0 0.1
13:38 12.8 6.6 66 996.4 16.8 S 22.8 0.0 0.1
13:39 12.9 6.3 64 996.5 18.3 S 22.8 0.0 0.1
13:40 12.9 6.3 64 996.3 18.3 S 22.8 0.0 0.1
13:41 12.9 6.0 63 996.5 15.9 S 22.8 0.0 0.1
13:42 13.0 6.1 63 996.6 21.3 S 22.8 0.0 0.1
13:43 13.0 6.1 63 996.5 20.6 S 22.8 0.0 0.1
13:44 13.0 6.1 63 996.5 22.8 S 22.8 0.0 0.1
13:45 13.0 6.1 63 996.6 22.8 S 22.8 0.0 0.1
13:46 12.9 6.0 63 996.6 23.5 S 23.5 0.0 0.1
13:47 13.0 6.1 63 996.5 22.1 SE 23.5 0.0 0.1
13:48 13.0 6.1 63 996.6 25.1 S 25.1 0.0 0.1
13:49 13.0 5.9 62 996.6 23.5 S 25.1 0.0 0.1
13:50 13.0 5.9 62 996.5 17.4 S 25.1 0.0 0.1
13:51 13.1 6.2 63 996.5 22.8 S 25.1 0.0 0.1
13:52 13.1 6.2 63 996.5 16.8 SE 25.1 0.0 0.1
13:53 13.2 6.3 63 996.6 19.0 S 25.1 0.0 0.1
13:54 13.2 6.3 63 996.8 19.0 S 25.1 0.0 0.1
13:55 13.2 6.3 63 996.6 16.8 S 25.1 0.0 0.1
13:56 13.2 6.1 62 996.5 22.8 S 25.1 0.0 0.1
13:57 13.2 5.6 60 996.5 27.3 S 27.3 0.0 0.1
13:58 13.1 6.0 62 996.6 21.3 SE 27.3 0.0 0.1
13:59 13.1 6.0 62 996.5 16.8 S 27.3 0.0 0.1
14:00 13.1 6.2 63 996.6 10.7 S 27.3 0.0 0.1
14:01 13.1 6.2 63 996.6 10.7 S 27.3 0.0 0.1
14:02 13.2 6.5 64 996.6 19.7 S 27.3 0.0 0.1
14:03 13.1 6.2 63 996.6 16.8 S 27.3 0.0 0.1
14:04 13.1 6.2 63 996.7 16.8 S 27.3 0.0 0.1
14:05 13.0 6.1 63 996.5 19.7 S 27.3 0.0 0.1
14:06 13.0 6.1 63 996.7 17.4 S 27.3 0.0 0.1
14:07 12.9 6.0 63 996.9 19.7 SE 21.3 0.0 0.1
14:08 12.9 6.0 63 996.9 19.7 SE 21.3 0.0 0.1
14:09 13.0 6.4 64 996.9 21.3 S 21.3 0.0 0.1
14:10 13.1 6.4 64 996.7 19.7 S 21.3 0.0 0.1
14:11 13.1 6.4 64 996.6 22.1 S 22.1 0.0 0.1
14:12 13.1 6.4 64 996.7 15.2 S 22.1 0.0 0.1
14:13 13.2 6.3 63 996.8 18.3 S 22.1 0.0 0.1
14:14 13.1 6.2 63 996.8 20.6 S 22.1 0.0 0.1
14:15 13.1 6.2 63 996.9 19.0 SW 22.1 0.0 0.1
14:16 13.1 6.4 64 996.7 20.6 SW 22.1 0.0 0.1
14:17 13.1 6.4 64 996.9 19.7 S 22.1 0.0 0.1
14:18 13.1 6.4 64 996.8 15.9 S 22.1 0.0 0.1
14:19 13.1 6.4 64 996.9 17.4 SE 22.8 0.0 0.1
14:20 13.1 6.4 64 997.0 22.8 S 22.8 0.0 0.1
14:21 13.1 6.4 64 997.0 20.6 S 22.8 0.0 0.1
14:22 13.1 6.4 64 996.8 17.4 S 22.8 0.0 0.1
14:23 13.0 6.4 64 997.1 21.3 S 22.8 0.0 0.1
14:24 13.0 6.4 64 996.9 16.8 S 22.8 0.0 0.1
14:25 13.0 6.4 64 996.9 22.8 S 22.8 0.0 0.1
14:26 12.9 6.3 64 996.9 18.3 S 22.8 0.0 0.1
14:27 12.8 6.2 64 997.1 23.5 S 23.5 0.0 0.1
14:28 12.8 6.2 64 997.0 20.6 S 23.5 0.0 0.1
14:29 12.8 6.2 64 997.0 15.9 SE 23.5 0.0 0.1
14:30 12.8 6.2 64 997.2 19.0 S 23.5 0.0 0.1
14:31 12.7 6.3 65 997.1 20.6 S 23.5 0.0 0.1
14:32 12.7 6.3 65 997.0 16.8 S 23.5 0.0 0.1
14:33 12.7 6.3 65 997.2 15.9 S 23.5 0.0 0.1
14:34 12.7 6.3 65 997.2 18.3 S 23.5 0.0 0.1
14:35 12.8 6.6 66 997.2 22.1 S 23.5 0.0 0.1
14:36 12.8 6.6 66 997.2 22.1 S 23.5 0.0 0.1
14:37 12.8 6.6 66 997.4 19.0 S 23.5 0.0 0.1
14:38 12.8 6.6 66 997.2 19.0 E 22.8 0.0 0.1
14:39 12.7 6.3 65 997.0 17.4 SE 22.8 0.0 0.1
14:40 12.7 6.3 65 997.2 17.4 SE 22.8 0.0 0.1
14:41 12.7 6.5 66 997.2 19.0 S 22.8 0.0 0.1
14:42 12.7 6.7 67 997.3 22.8 S 22.8 0.0 0.1
14:43 12.7 6.7 67 997.2 18.3 SW 22.8 0.0 0.1
14:44 12.7 6.7 67 997.1 15.2 SSW 22.8 0.0 0.1
14:45 12.8 6.8 67 997.3 19.7 S 22.8 0.0 0.1
14:46 12.7 6.7 67 997.3 17.4 S 22.8 0.0 0.1
14:47 12.8 6.8 67 997.2 16.8 S 22.8 0.0 0.1
14:48 12.8 6.8 67 997.4 22.8 S 22.8 0.0 0.1
14:49 12.8 6.8 67 997.4 22.1 S 22.8 0.0 0.1
14:50 12.7 6.7 67 997.3 22.1 S 22.8 0.0 0.1
14:51 12.7 6.5 66 997.3 22.1 S 22.8 0.0 0.1
14:52 12.8 6.6 66 997.3 15.2 SW 22.8 0.0 0.1
14:53 12.7 6.5 66 997.4 15.2 SSE 22.8 0.0 0.1
14:54 12.7 6.5 66 997.4 17.4 S 22.8 0.0 0.1
14:55 12.7 6.5 66 997.4 19.7 SE 22.8 0.0 0.1
14:56 12.7 6.5 66 997.5 22.1 S 22.8 0.0 0.1
14:57 12.7 6.1 64 997.6 21.3 SW 22.8 0.0 0.1
14:58 12.7 5.8 63 997.6 19.0 S 22.8 0.0 0.1
14:59 12.8 5.7 62 997.6 19.7 SW 22.1 0.0 0.1
15:00 12.8 5.7 62 997.7 19.7 SW 22.1 0.0 0.1
15:01 12.8 5.7 62 997.6 19.7 SW 22.1 0.0 0.1
15:02 12.8 5.7 62 997.4 12.1 SW 22.1 0.0 0.1
15:03 12.7 5.4 61 997.6 18.3 SSW 22.1 0.0 0.1
15:04 12.6 5.3 61 997.6 16.8 S 22.1 0.0 0.1
15:05 12.6 5.3 61 997.6 16.8 S 22.1 0.0 0.1
15:06 12.5 4.9 60 997.6 18.3 S 21.3 0.0 0.1
15:07 12.4 5.1 61 997.5 15.2 SW 21.3 0.0 0.1
15:08 12.4 5.1 61 997.4 16.8 S 19.7 0.0 0.1
15:09 12.4 5.1 61 997.7 16.8 S 19.7 0.0 0.1
15:10 12.5 5.4 62 997.6 18.3 S 19.7 0.0 0.1
15:11 12.5 5.4 62 997.6 21.3 SW 21.3 0.0 0.1
15:12 12.5 5.4 62 997.5 10.7 S 21.3 0.0 0.1
15:13 12.6 5.7 63 997.7 16.8 S 21.3 0.0 0.1
15:14 12.7 5.8 63 997.6 17.4 SW 21.3 0.0 0.1
15:15 12.8 6.2 64 997.6 13.6 SE 21.3 0.0 0.1
15:16 12.9 6.3 64 997.7 17.4 SE 21.3 0.0 0.1
15:17 13.0 6.4 64 997.7 14.5 SW 21.3 0.0 0.1
15:18 13.0 6.1 63 997.6 21.3 S 21.3 0.0 0.1
15:19 13.1 6.2 63 997.8 19.0 S 21.3 0.0 0.1
15:20 13.1 6.0 62 997.8 19.7 S 21.3 0.0 0.1
15:21 13.1 6.0 62 997.7 19.7 S 21.3 0.0 0.1
15:22 13.1 6.0 62 997.7 17.4 SW 21.3 0.0 0.1
15:23 13.1 6.0 62 997.8 14.5 S 21.3 0.0 0.1
15:24 13.2 5.8 61 997.7 15.2 S 21.3 0.0 0.1
15:25 13.2 6.1 62 997.9 15.2 S 21.3 0.0 0.1
15:27 13.4 5.8 60 997.8 13.6 S 21.3 0.0 0.1
15:28 13.4 5.8 60 997.6 18.3 S 19.7 0.0 0.1
15:29 13.4 5.8 60 997.8 15.2 S 19.7 0.0 0.1
15:30 13.4 5.6 59 997.7 17.4 S 19.7 0.0 0.1
15:31 13.4 5.3 58 998.1 18.3 S 19.0 0.0 0.1
15:32 13.4 5.3 58 997.9 19.0 SE 19.0 0.0 0.1
15:33 13.4 5.3 58 997.9 19.0 SE 19.0 0.0 0.1
15:34 13.4 5.3 58 997.8 14.5 S 19.0 0.0 0.1
15:35 13.4 5.3 58 997.9 16.8 SE 19.0 0.0 0.1
15:36 13.5 5.6 59 997.9 15.9 SE 19.0 0.0 0.1
15:37 13.5 5.6 59 998.0 16.8 S 19.0 0.0 0.1
15:38 13.5 5.6 59 998.0 17.4 S 19.0 0.0 0.1
15:39 13.5 5.6 59 997.9 15.2 SE 19.0 0.0 0.1
15:40 13.4 6.0 61 998.0 16.8 S 19.0 0.0 0.1
15:41 13.4 5.8 60 998.1 15.9 SW 19.0 0.0 0.1
15:42 13.4 5.8 60 998.0 17.4 SW 19.0 0.0 0.1
15:43 13.3 5.5 59 998.1 14.5 S 19.7 0.0 0.1
15:44 13.2 5.4 59 998.0 17.4 SW 19.7 0.0 0.1
15:45 13.2 5.6 60 997.9 13.0 SSW 19.7 0.0 0.1
15:46 13.2 5.6 60 997.9 18.3 S 19.7 0.0 0.1
15:47 13.2 5.6 60 998.1 13.6 S 19.7 0.0 0.1
15:48 13.2 5.6 60 998.0 10.7 S 19.7 0.0 0.1
15:49 13.1 5.5 60 997.9 17.4 SSW 19.7 0.0 0.1
15:50 13.1 5.5 60 998.0 16.8 SW 19.7 0.0 0.1
15:51 13.1 5.5 60 998.1 17.4 SSE 19.7 0.0 0.1
15:52 13.1 5.5 60 998.1 15.9 SSW 19.7 0.0 0.1
15:53 13.1 5.5 60 998.1 18.3 SE 19.7 0.0 0.1
15:54 13.0 5.2 59 998.0 19.0 S 19.0 0.0 0.1
15:55 12.8 5.0 59 998.3 19.7 S 19.7 0.0 0.1
15:56 12.8 5.0 59 998.1 15.9 SW 19.7 0.0 0.1
15:57 12.8 5.0 59 998.2 20.6 S 20.6 0.0 0.1
15:58 12.8 5.0 59 998.3 15.9 SSW 20.6 0.0 0.1
15:59 12.9 5.1 59 998.1 13.6 S 20.6 0.0 0.1
16:00 12.9 5.1 59 998.2 13.6 S 20.6 0.0 0.1
16:01 12.9 5.1 59 998.2 13.6 S 20.6 0.0 0.1
16:02 13.0 4.9 58 998.2 15.9 S 20.6 0.0 0.1
16:03 13.0 4.9 58 998.4 14.5 S 20.6 0.0 0.1
16:04 13.0 4.9 58 998.2 13.0 E 20.6 0.0 0.1
16:05 13.1 5.0 58 998.4 19.0 S 20.6 0.0 0.1
16:06 13.1 5.0 58 998.3 20.6 S 20.6 0.0 0.1
16:07 13.2 5.1 58 998.5 18.3 SW 20.6 0.0 0.1
16:09 13.2 5.6 60 998.4 15.2 SW 20.6 0.0 0.1
16:10 13.3 5.5 59 998.5 17.4 S 20.6 0.0 0.1
16:11 13.3 5.5 59 998.4 18.3 S 20.6 0.0 0.1
16:12 13.2 5.4 59 998.5 17.4 S 20.6 0.0 0.1
16:13 13.2 5.4 59 998.5 18.3 S 20.6 0.0 0.1
16:14 13.2 5.4 59 998.5 16.8 SE 20.6 0.0 0.1
16:15 13.2 5.4 59 998.4 19.0 S 20.6 0.0 0.1
16:16 13.2 5.4 59 998.5 15.2 S 20.6 0.0 0.1
16:17 13.2 5.4 59 998.5 15.9 SE 19.0 0.0 0.1
16:18 13.2 5.6 60 998.5 15.2 SW 19.0 0.0 0.1
16:19 13.2 5.6 60 998.6 15.9 SW 19.0 0.0 0.1
16:20 13.2 5.6 60 998.5 11.4 SW 19.0 0.0 0.1
16:21 13.2 5.6 60 998.5 17.4 SE 19.0 0.0 0.1
16:23 13.1 5.3 59 998.5 18.3 SW 19.0 0.0 0.1
16:24 13.0 5.2 59 998.6 16.8 SE 19.0 0.0 0.1
16:25 13.0 5.2 59 998.6 16.8 S 18.3 0.0 0.1
16:26 12.9 5.3 60 998.6 15.9 SW 18.3 0.0 0.1
16:27 13.0 5.4 60 998.8 16.8 S 18.3 0.0 0.1
16:28 13.0 5.4 60 998.8 16.8 S 18.3 0.0 0.1
16:29 12.9 5.3 60 998.6 10.7 S 18.3 0.0 0.1
16:30 13.0 5.7 61 998.7 16.8 SW 18.3 0.0 0.1
16:31 13.0 5.7 61 998.7 15.9 SW 18.3 0.0 0.1
16:32 13.0 5.4 60 998.8 17.4 SE 18.3 0.0 0.1
16:33 13.0 5.4 60 998.7 17.4 SW 18.3 0.0 0.1
16:34 13.1 5.5 60 998.8 13.6 SSW 17.4 0.0 0.1
16:35 13.1 5.5 60 998.7 14.5 S 17.4 0.0 0.1
16:37 13.2 5.6 60 998.7 16.8 SE 17.4 0.0 0.1
16:38 13.2 5.4 59 998.9 14.5 S 17.4 0.0 0.1
16:39 13.3 5.5 59 998.9 19.0 SW 19.0 0.0 0.1
16:40 13.3 5.5 59 999.0 15.9 S 19.0 0.0 0.1
16:41 13.2 5.1 58 999.1 14.5 S 19.0 0.0 0.1
16:42 13.2 5.1 58 999.0 15.2 SE 19.0 0.0 0.1
16:43 13.2 5.1 58 999.0 14.5 S 19.0 0.0 0.1
16:44 13.2 4.9 57 999.0 15.9 S 19.0 0.0 0.1
16:45 13.2 4.9 57 999.0 13.6 SE 19.0 0.0 0.1
16:46 13.1 4.5 56 999.1 16.8 S 19.0 0.0 0.1
16:47 13.1 4.8 57 999.0 17.4 S 19.0 0.0 0.1
16:48 13.1 4.8 57 999.2 15.9 S 19.0 0.0 0.1
16:49 13.1 4.8 57 999.2 16.8 S 19.0 0.0 0.1
16:51 13.0 4.7 57 999.2 13.6 S 17.4 0.0 0.1
16:52 13.0 4.9 58 999.1 14.5 S 17.4 0.0 0.1
16:53 13.0 4.9 58 999.2 13.6 S 17.4 0.0 0.1
16:54 13.0 5.2 59 999.1 14.5 S 17.4 0.0 0.1
16:55 13.0 4.9 58 999.2 15.2 SW 17.4 0.0 0.1
16:56 13.1 5.0 58 999.3 18.3 S 18.3 0.0 0.1
16:57 13.0 4.9 58 999.2 14.5 S 18.3 0.0 0.1
16:58 13.1 5.0 58 999.1 13.0 S 18.3 0.0 0.1
16:59 13.1 5.3 59 999.3 15.2 S 18.3 0.0 0.1
17:00 13.1 5.3 59 999.1 15.9 SW 18.3 0.0 0.1
17:01 13.1 5.3 59 999.1 15.9 SW 18.3 0.0 0.1
17:02 13.1 5.3 59 999.3 16.8 SW 18.3 0.0 0.1
17:03 13.1 5.3 59 999.2 10.7 SE 18.3 0.0 0.1
17:04 13.1 5.3 59 999.5 15.9 SW 18.3 0.0 0.1
17:05 13.2 5.4 59 999.4 14.5 S 18.3 0.0 0.1
17:06 13.2 5.4 59 999.3 16.8 S 18.3 0.0 0.1
17:08 13.2 5.4 59 999.3 15.2 SW 16.8 0.0 0.1
17:09 13.2 5.4 59 999.3 15.2 S 16.8 0.0 0.1
17:10 13.2 5.4 59 999.4 12.1 SE 16.8 0.0 0.1
17:11 13.2 5.4 59 999.4 12.1 S 16.8 0.0 0.1
17:12 13.2 5.4 59 999.4 14.5 S 16.8 0.0 0.1
17:13 13.1 5.3 59 999.4 14.5 S 16.8 0.0 0.1
17:14 13.2 5.6 60 999.3 15.9 SE 16.8 0.0 0.1
17:15 13.2 5.6 60 999.6 15.9 SW 16.8 0.0 0.1
17:16 13.2 5.4 59 999.5 15.9 SW 16.8 0.0 0.1
17:17 13.2 5.4 59 999.3 13.6 SE 15.9 0.0 0.1
17:18 13.1 5.5 60 999.3 15.9 SE 15.9 0.0 0.1
17:19 13.2 5.6 60 999.3 13.6 S 15.9 0.0 0.1
17:20 13.2 5.6 60 999.5 13.0 SW 15.9 0.0 0.1
17:22 13.2 5.6 60 999.5 13.6 SW 15.9 0.0 0.1
17:23 13.2 5.6 60 999.6 16.8 S 16.8 0.0 0.1
17:24 13.2 5.6 60 999.5 15.9 SW 16.8 0.0 0.1
17:25 13.1 5.5 60 999.5 12.1 SW 16.8 0.0 0.1
17:26 13.1 5.8 61 999.6 14.5 S 16.8 0.0 0.1
17:27 13.1 5.5 60 999.6 18.3 S 18.3 0.0 0.1
17:28 13.1 5.5 60 999.6 18.3 S 18.3 0.0 0.1
17:29 13.0 5.4 60 999.6 11.4 S 18.3 0.0 0.1
17:30 13.0 5.4 60 999.6 15.2 S 18.3 0.0 0.1
17:31 13.0 5.7 61 999.8 15.2 SE 18.3 0.0 0.1
17:32 12.9 5.6 61 999.6 12.1 S 18.3 0.0 0.1
17:33 12.9 5.6 61 999.7 15.2 S 18.3 0.0 0.1
17:34 12.9 5.6 61 999.7 16.8 SE 18.3 0.0 0.1
17:36 12.9 5.6 61 999.7 13.6 SW 18.3 0.0 0.1
17:37 12.9 5.6 61 999.7 15.9 S 18.3 0.0 0.1
17:38 12.8 5.5 61 999.8 13.6 S 16.8 0.0 0.1
17:39 12.8 5.5 61 999.6 13.6 S 16.8 0.0 0.1
17:40 12.7 5.6 62 999.7 11.4 WSW 16.8 0.0 0.1
17:41 12.7 5.6 62 999.6 11.4 S 16.8 0.0 0.1
17:42 12.8 5.7 62 999.7 14.5 S 16.8 0.0 0.1
17:43 12.8 5.7 62 999.7 15.9 SE 16.8 0.0 0.1
17:44 12.7 5.6 62 999.8 15.2 S 16.8 0.0 0.1
17:45 12.7 5.6 62 999.8 13.6 S 16.8 0.0 0.1
17:46 12.7 5.6 62 999.7 11.4 SSW 15.9 0.0 0.1
17:47 12.7 5.6 62 999.7 10.7 SE 15.9 0.0 0.1
17:48 12.7 5.8 63 999.6 13.6 S 15.9 0.0 0.1
17:49 12.8 5.9 63 999.7 15.2 SE 15.9 0.0 0.1
17:51 12.7 5.8 63 999.7 13.0 S 15.9 0.0 0.1
17:52 12.7 5.8 63 999.8 12.1 S 15.9 0.0 0.1
17:53 12.6 5.7 63 999.9 10.7 S 15.2 0.0 0.1
17:54 12.6 5.7 63 1000.1 14.5 S 15.2 0.0 0.1
17:55 12.6 5.7 63 1000.0 12.1 S 15.2 0.0 0.1
17:56 12.6 5.7 63 1000.0 12.1 S 15.2 0.0 0.1
17:57 12.5 5.7 63 1000.0 12.1 S 16.8 0.0 0.1
17:58 12.5 5.7 63 999.9 16.8 S 16.8 0.0 0.1
17:59 12.5 5.7 63 999.9 16.8 S 16.8 0.0 0.1
18:00 12.4 5.6 63 1000.0 15.9 SE 16.8 0.0 0.1
18:01 12.4 5.6 63 1000.1 15.9 SE 16.8 0.0 0.1
18:02 12.4 5.6 63 1000.2 15.9 SE 16.8 0.0 0.1
18:03 12.4 5.6 63 1000.1 15.9 SE 16.8 0.0 0.1
18:05 12.3 5.7 64 1000.1 10.7 SE 16.8 0.0 0.1
18:06 12.3 5.7 64 1000.1 15.9 S 16.8 0.0 0.1
18:07 12.2 5.6 64 999.9 17.4 SE 17.4 0.0 0.1
18:08 12.2 5.4 63 999.9 17.4 SE 17.4 0.0 0.1
18:09 12.2 5.4 63 1000.1 15.9 SE 17.4 0.0 0.1
18:10 12.1 5.3 63 1000.1 19.0 S 19.0 0.0 0.1
18:11 12.1 5.3 63 1000.1 15.9 S 19.0 0.0 0.1
18:12 12.1 5.5 64 1000.2 15.2 S 19.0 0.0 0.1
18:13 12.1 5.5 64 1000.1 15.2 SE 19.0 0.0 0.1
18:14 12.1 5.5 64 1000.1 19.7 SE 19.7 0.0 0.1
18:15 12.0 5.4 64 1000.1 13.0 SE 19.7 0.0 0.1
18:16 12.0 5.4 64 1000.0 13.0 S 19.7 0.0 0.1
18:17 12.0 5.4 64 1000.2 18.3 SW 19.7 0.0 0.1
18:19 12.0 5.6 65 1000.1 15.2 S 19.7 0.0 0.1
18:20 12.0 5.6 65 1000.2 16.8 SE 19.7 0.0 0.1
18:21 12.0 5.6 65 1000.4 16.8 SE 19.7 0.0 0.1
18:22 12.0 5.4 64 1000.2 10.7 S 19.7 0.0 0.1
18:23 11.9 5.5 65 1000.3 15.2 SE 19.7 0.0 0.1
18:24 11.9 5.5 65 1000.3 15.2 SE 19.7 0.0 0.1
18:25 11.9 5.5 65 1000.1 10.7 SW 18.3 0.0 0.1
18:26 11.9 5.5 65 1000.2 12.1 S 18.3 0.0 0.1
18:27 11.9 5.5 65 1000.3 13.0 SE 18.3 0.0 0.1
18:28 12.0 5.6 65 1000.2 16.8 S 16.8 0.0 0.1
18:29 12.0 5.6 65 1000.4 13.0 SE 16.8 0.0 0.1
18:30 12.0 5.6 65 1000.2 13.6 S 16.8 0.0 0.1
18:31 12.0 5.8 66 1000.3 13.6 SW 16.8 0.0 0.1
18:33 12.1 5.9 66 1000.4 13.6 S 16.8 0.0 0.1
18:34 12.1 5.9 66 1000.4 12.1 SW 16.8 0.0 0.1
18:35 12.1 5.7 65 1000.4 10.7 S 16.8 0.0 0.1
18:36 12.1 5.9 66 1000.5 13.0 S 16.8 0.0 0.1
18:37 12.2 6.0 66 1000.3 12.1 S 16.8 0.0 0.1
18:38 12.2 6.0 66 1000.4 12.1 S 16.8 0.0 0.1
18:39 12.2 6.0 66 1000.5 15.2 S 15.2 0.0 0.1
18:40 12.3 5.9 65 1000.6 14.5 S 15.2 0.0 0.1
18:41 12.3 5.9 65 1000.5 13.0 S 15.2 0.0 0.1
18:42 12.3 5.9 65 1000.5 11.4 S 15.2 0.0 0.1
18:43 12.3 6.1 66 1000.5 14.5 S 15.2 0.0 0.1
18:44 12.3 5.9 65 1000.5 13.6 SE 15.2 0.0 0.1
18:45 12.3 5.9 65 1000.4 13.6 S 15.2 0.0 0.1
18:47 12.2 5.8 65 1000.4 9.2 SW 15.2 0.0 0.1
18:48 12.2 5.8 65 1000.4 12.1 S 15.2 0.0 0.1
18:49 12.2 5.8 65 1000.4 11.4 SW 15.2 0.0 0.1
18:50 12.2 5.8 65 1000.5 10.7 S 15.2 0.0 0.1
18:51 12.2 5.8 65 1000.5 14.5 S 15.2 0.0 0.1
18:52 12.2 5.8 65 1000.5 14.5 S 15.2 0.0 0.1
18:53 12.1 5.7 65 1000.5 9.8 S 15.2 0.0 0.1
18:54 12.1 5.9 66 1000.5 14.5 ESE 15.2 0.0 0.1
18:55 12.1 5.9 66 1000.5 14.5 S 15.2 0.0 0.1
18:56 12.1 5.9 66 1000.6 15.2 S 15.2 0.0 0.1
18:57 12.1 5.9 66 1000.7 10.7 S 15.2 0.0 0.1
18:58 12.1 5.9 66 1000.7 9.8 S 15.2 0.0 0.1
18:59 12.1 5.9 66 1000.6 13.6 SE 15.2 0.0 0.1
19:00 12.1 5.9 66 1000.6 12.1 SW 15.2 0.0 0.1
19:02 12.0 5.8 66 1000.6 11.4 SE 15.2 0.0 0.1
19:03 12.0 5.8 66 1000.6 13.0 WSW 15.2 0.0 0.1
19:04 12.0 5.8 66 1000.6 15.2 SE 15.2 0.0 0.1
19:05 12.0 5.8 66 1000.6 9.2 S 15.2 0.0 0.1
19:06 12.0 5.8 66 1000.5 9.8 SW 15.2 0.0 0.1
19:07 11.9 5.8 66 1000.6 10.7 SSE 15.2 0.0 0.1
19:09 11.9 5.8 66 1000.6 12.1 S 15.2 0.0 0.1
19:10 11.8 5.7 66 1000.8 13.0 SE 15.9 0.0 0.1
19:11 11.8 5.7 66 1000.9 13.6 S 15.9 0.0 0.1
19:12 11.7 5.6 66 1000.8 12.1 S 15.9 0.0 0.1
19:13 11.7 5.6 66 1000.7 12.1 S 15.9 0.0 0.1
19:14 11.7 5.6 66 1000.6 13.0 SE 15.9 0.0 0.1
19:15 11.6 5.5 66 1000.9 11.4 S 15.9 0.0 0.1
19:16 11.6 5.7 67 1001.0 15.2 S 15.9 0.0 0.1
19:17 11.6 5.7 67 1000.8 13.0 SW 15.9 0.0 0.1
19:18 11.6 5.7 67 1000.8 10.7 S 15.9 0.0 0.1
19:19 11.5 5.6 67 1000.8 11.4 S 15.9 0.0 0.1
19:20 11.5 5.6 67 1000.8 9.2 S 15.9 0.0 0.1
19:21 11.5 5.6 67 1000.8 11.4 S 15.2 0.0 0.1
19:23 11.3 5.6 68 1000.9 8.3 S 15.2 0.0 0.1
19:24 11.5 5.8 68 1000.9 10.7 SE 15.2 0.0 0.1
19:25 11.5 5.8 68 1000.8 15.2 S 15.2 0.0 0.1
19:26 11.4 5.7 68 1000.9 11.4 SW 15.2 0.0 0.1
19:27 11.4 5.7 68 1000.9 12.1 S 15.2 0.0 0.1
19:28 11.4 5.7 68 1000.9 13.0 SSW 15.2 0.0 0.1
19:29 11.4 5.7 68 1001.0 13.6 SW 15.2 0.0 0.1
19:30 11.3 5.6 68 1001.0 10.7 SSE 15.2 0.0 0.1
19:31 11.3 5.6 68 1001.0 9.8 SW 15.2 0.0 0.1
19:32 11.3 5.6 68 1001.0 11.4 S 15.2 0.0 0.1
19:33 11.2 5.5 68 1001.0 9.2 SE 15.2 0.0 0.1
19:34 11.2 5.5 68 1001.0 10.7 SW 15.2 0.0 0.1
19:35 11.2 5.5 68 1001.0 9.8 SE 15.2 0.0 0.1
19:36 11.2 5.5 68 1001.0 9.2 SSW 13.6 0.0 0.1
19:37 11.1 5.4 68 1001.0 11.4 SE 13.6 0.0 0.1
19:38 11.1 5.4 68 1000.9 10.7 S 13.6 0.0 0.1
19:39 11.0 5.3 68 1001.1 11.4 SE 11.4 0.0 0.1
19:40 11.0 5.3 68 1000.8 12.1 S 12.1 0.0 0.1
19:41 11.0 5.3 68 1000.8 12.1 S 12.1 0.0 0.1
19:42 11.0 5.5 69 1000.9 9.2 S 12.1 0.0 0.1
19:43 10.9 5.4 69 1001.1 11.4 S 12.1 0.0 0.1
19:44 10.9 5.4 69 1001.0 11.4 S 12.1 0.0 0.1
19:45 10.9 5.4 69 1001.1 10.7 S 12.1 0.0 0.1
19:46 10.8 5.3 69 1001.1 13.0 S 13.0 0.0 0.1
19:47 10.8 5.3 69 1001.2 10.7 S 13.0 0.0 0.1
19:48 10.8 5.3 69 1001.3 12.1 S 13.0 0.0 0.1
19:50 10.8 5.6 70 1001.2 8.3 S 13.0 0.0 0.1
19:51 10.8 5.6 70 1001.2 13.0 SE 13.0 0.0 0.1
19:52 10.7 5.5 70 1001.2 11.4 S 13.0 0.0 0.1
19:53 10.7 5.5 70 1001.3 12.1 S 13.0 0.0 0.1
19:54 10.7 5.5 70 1001.2 7.6 S 13.0 0.0 0.1
19:56 10.6 5.4 70 1001.4 8.3 S 15.2 0.0 0.1
19:57 10.6 5.4 70 1001.3 12.1 S 15.2 0.0 0.1
19:58 10.6 5.4 70 1001.4 11.4 S 15.2 0.0 0.1
19:59 10.6 5.4 70 1001.4 9.8 S 15.2 0.0 0.1
20:00 10.6 5.4 70 1001.3 9.8 S 15.2 0.0 0.1
20:02 10.5 5.5 71 1001.5 9.8 SE 15.2 0.0 0.1
20:03 10.5 5.5 71 1001.5 9.2 SSE 15.2 0.0 0.1
20:04 10.4 5.4 71 1001.4 9.2 SSW 15.2 0.0 0.1
20:05 10.4 5.4 71 1001.5 10.7 SE 15.2 0.0 0.1
20:06 10.4 5.4 71 1001.4 9.2 SE 15.2 0.0 0.1
20:07 10.4 5.4 71 1001.4 9.8 S 15.2 0.0 0.1
20:08 10.3 5.3 71 1001.4 8.3 S 15.2 0.0 0.1
20:09 10.3 5.3 71 1001.5 8.3 S 15.2 0.0 0.1
20:10 10.3 5.3 71 1001.5 8.3 S 10.7 0.0 0.1
20:11 10.2 5.2 71 1001.5 9.2 S 10.7 0.0 0.1
20:12 10.2 5.2 71 1001.4 8.3 SE 10.7 0.0 0.1
20:13 10.2 5.2 71 1001.5 8.3 S 10.7 0.0 0.1
20:14 10.1 5.1 71 1001.5 6.9 SE 10.7 0.0 0.1
20:16 10.1 5.3 72 1001.5 9.8 S 9.8 0.0 0.1
20:17 10.0 5.2 72 1001.5 9.2 S 9.8 0.0 0.1
20:18 10.0 5.2 72 1001.7 7.6 S 9.8 0.0 0.1
20:19 9.9 5.1 72 1001.6 7.6 S 9.8 0.0 0.1
20:20 9.9 5.1 72 1001.6 7.6 S 9.8 0.0 0.1
20:21 9.9 5.1 72 1001.6 6.9 S 9.8 0.0 0.1
20:22 9.8 5.0 72 1001.6 7.6 SE 9.8 0.0 0.1
20:23 9.8 5.0 72 1001.7 8.3 S 9.8 0.0 0.1
20:24 9.8 5.0 72 1001.6 6.9 S 9.8 0.0 0.1
20:25 9.7 4.9 72 1001.8 6.9 S 9.8 0.0 0.1
20:26 9.7 4.9 72 1001.8 6.0 S 9.8 0.0 0.1
20:27 9.7 4.9 72 1001.7 6.9 S 9.2 0.0 0.1
20:28 9.6 5.0 73 1001.7 6.9 S 8.3 0.0 0.1
20:30 9.5 4.9 73 1001.9 7.6 S 8.3 0.0 0.1
20:31 9.5 4.9 73 1001.9 8.3 S 8.3 0.0 0.1
20:32 9.5 4.9 73 1001.8 6.9 S 8.3 0.0 0.1
20:33 9.5 4.9 73 1001.8 7.6 S 8.3 0.0 0.1
20:34 9.4 4.8 73 1001.9 8.3 S 8.3 0.0 0.1
20:35 9.4 4.8 73 1001.9 8.3 S 8.3 0.0 0.1
20:36 9.4 4.8 73 1001.9 5.4 S 8.3 0.0 0.1
20:37 9.4 4.8 73 1001.9 6.0 S 8.3 0.0 0.1
20:38 9.3 4.7 73 1001.8 6.0 S 8.3 0.0 0.1
20:39 9.3 4.7 73 1001.9 5.4 SE 8.3 0.0 0.1
20:40 9.3 4.9 74 1001.9 6.9 SE 8.3 0.0 0.1
20:41 9.3 4.9 74 1001.9 6.0 S 8.3 0.0 0.1
20:42 9.2 4.8 74 1001.8 6.0 S 8.3 0.0 0.1
20:43 9.1 4.7 74 1001.9 6.0 S 8.3 0.0 0.1
20:45 9.1 4.7 74 1002.0 5.4 SE 6.9 0.0 0.1
20:46 9.0 4.6 74 1001.8 5.4 S 6.9 0.0 0.1
20:47 9.0 4.6 74 1002.0 6.0 SE 6.9 0.0 0.1
20:48 9.0 4.6 74 1001.9 7.6 S 7.6 0.0 0.1
20:49 9.0 4.6 74 1001.8 5.4 S 7.6 0.0 0.1
20:50 9.0 4.6 74 1001.9 5.4 SE 7.6 0.0 0.1
20:51 8.9 4.5 74 1001.9 5.4 S 7.6 0.0 0.1
20:52 8.9 4.5 74 1002.0 6.0 S 7.6 0.0 0.1
20:53 8.9 4.5 74 1002.0 5.4 S 7.6 0.0 0.1
20:54 8.8 4.6 75 1002.0 6.9 SE 7.6 0.0 0.1
20:55 8.8 4.6 75 1001.8 7.6 S 7.6 0.0 0.1
20:56 8.8 4.6 75 1002.0 5.4 S 7.6 0.0 0.1
20:57 8.8 4.6 75 1001.8 3.8 SE 7.6 0.0 0.1
20:58 8.8 4.6 75 1002.1 6.9 SE 7.6 0.0 0.1
20:59 8.7 4.5 75 1002.2 4.5 SE 7.6 0.0 0.1
21:00 8.7 4.5 75 1002.2 4.5 SE 7.6 0.0 0.1
21:01 8.7 4.5 75 1002.2 4.5 SE 7.6 0.0 0.1
21:03 8.7 4.5 75 1002.2 4.5 SE 7.6 0.0 0.1
21:04 8.7 4.5 75 1002.2 4.5 SE 7.6 0.0 0.1
21:05 8.7 4.5 75 1002.2 4.5 SE 6.9 0.0 0.1
21:06 8.6 4.4 75 1002.2 5.4 S 6.9 0.0 0.1
21:07 8.6 4.4 75 1002.3 4.5 SSE 6.9 0.0 0.1
21:08 8.6 4.4 75 1002.3 4.5 SSE 6.9 0.0 0.1
21:09 8.5 4.5 76 1002.3 6.0 SE 6.0 0.0 0.1
21:10 8.5 4.5 76 1002.4 6.0 S 6.0 0.0 0.1
21:11 8.5 4.5 76 1002.4 5.4 SE 6.0 0.0 0.1
21:12 8.5 4.5 76 1002.4 5.4 S 6.0 0.0 0.1
21:13 8.5 4.5 76 1002.4 7.6 SE 7.6 0.0 0.1
21:14 8.5 4.5 76 1002.5 4.5 SE 7.6 0.0 0.1
21:15 8.5 4.5 76 1002.5 6.0 SE 7.6 0.0 0.1
21:16 8.5 4.5 76 1002.3 7.6 S 7.6 0.0 0.1
21:17 8.5 4.5 76 1002.5 4.5 SE 7.6 0.0 0.1
21:19 8.5 4.5 76 1002.5 6.0 ENE 7.6 0.0 0.1
21:20 8.5 4.5 76 1002.5 4.5 SE 7.6 0.0 0.1
21:21 8.5 4.7 77 1002.5 3.8 NE 7.6 0.0 0.1
21:22 8.4 4.4 76 1002.5 5.4 SE 7.6 0.0 0.1
21:23 8.4 4.4 76 1002.5 5.4 SE 7.6 0.0 0.1
21:24 8.5 4.5 76 1002.5 3.8 SE 7.6 0.0 0.1
21:25 8.4 4.6 77 1002.6 3.8 SE 7.6 0.0 0.1
21:26 8.4 4.6 77 1002.7 3.8 SE 7.6 0.0 0.1
21:27 8.4 4.6 77 1002.5 6.0 SE 6.0 0.0 0.1
21:28 8.4 4.6 77 1002.7 4.5 E 6.0 0.0 0.1
21:29 8.4 4.6 77 1002.5 4.5 SE 6.0 0.0 0.1
21:30 8.4 4.6 77 1002.6 5.4 SE 6.0 0.0 0.1
21:31 8.4 4.6 77 1002.6 5.4 S 6.0 0.0 0.1
21:33 8.4 4.6 77 1002.7 5.4 E 6.0 0.0 0.1
21:34 8.3 4.5 77 1002.5 4.5 SE 6.0 0.0 0.1
21:35 8.3 4.5 77 1002.7 4.5 SE 6.0 0.0 0.1
21:36 8.3 4.5 77 1002.7 4.5 SE 6.0 0.0 0.1
21:37 8.3 4.5 77 1002.9 4.5 SSE 6.0 0.0 0.1
21:38 8.3 4.5 77 1002.8 3.8 SE 5.4 0.0 0.1
21:39 8.3 4.5 77 1002.9 3.1 E 5.4 0.0 0.1
21:40 8.3 4.5 77 1002.7 4.5 SE 5.4 0.0 0.1
21:41 8.3 4.5 77 1002.9 3.8 ESE 5.4 0.0 0.1
21:42 8.2 4.4 77 1002.9 4.5 SE 5.4 0.0 0.1
21:43 8.2 4.4 77 1002.8 3.8 S 5.4 0.0 0.1
21:44 8.2 4.4 77 1002.7 4.5 SE 4.5 0.0 0.1
21:45 8.2 4.6 78 1002.8 3.1 N 4.5 0.0 0.1
21:46 8.2 4.6 78 1002.8 4.5 SE 5.4 0.0 0.1
21:47 8.2 4.6 78 1002.9 5.4 SE 5.4 0.0 0.1
21:49 8.2 4.6 78 1002.8 5.4 SE 6.9 0.0 0.1
21:50 8.2 4.6 78 1002.8 4.5 E 6.9 0.0 0.1
21:51 8.2 4.6 78 1002.8 4.5 SE 6.9 0.0 0.1
21:52 8.1 4.5 78 1002.9 3.8 SE 6.9 0.0 0.1
21:53 8.1 4.5 78 1002.9 4.5 SE 6.9 0.0 0.1
21:54 8.1 4.5 78 1002.9 5.4 S 6.9 0.0 0.1
21:55 8.1 4.5 78 1003.0 4.5 S 6.9 0.0 0.1
21:56 8.1 4.5 78 1002.9 4.5 SE 6.9 0.0 0.1
21:57 8.1 4.5 78 1003.0 4.5 SE 6.9 0.0 0.1
21:58 8.1 4.5 78 1002.9 5.4 SE 6.9 0.0 0.1
21:59 8.1 4.5 78 1002.8 4.5 S 5.4 0.0 0.1
22:00 8.1 4.5 78 1002.7 5.4 SE 5.4 0.0 0.1
22:01 8.1 4.5 78 1002.9 5.4 SE 5.4 0.0 0.1
22:02 8.1 4.5 78 1002.9 5.4 SE 5.4 0.0 0.1
22:03 8.1 4.5 78 1002.9 5.4 SE 5.4 0.0 0.1
22:04 8.1 4.5 78 1002.8 5.4 SE 5.4 0.0 0.1
22:05 8.1 4.5 78 1002.9 5.4 SE 5.4 0.0 0.1
22:06 8.1 4.7 79 1003.0 5.4 SE 5.4 0.0 0.1
22:08 8.0 4.6 79 1002.9 5.4 SE 5.4 0.0 0.1
22:09 8.0 4.6 79 1002.9 5.4 SE 5.4 0.0 0.1
22:10 8.0 4.6 79 1002.9 4.5 SE 5.4 0.0 0.1
22:11 8.0 4.6 79 1003.0 5.4 SE 5.4 0.0 0.1
22:12 8.0 4.6 79 1003.0 5.4 SE 5.4 0.0 0.1
22:13 8.0 4.6 79 1003.0 6.0 SE 6.0 0.0 0.1
22:14 8.0 4.6 79 1003.0 5.4 SE 6.0 0.0 0.1
22:15 8.0 4.6 79 1003.1 4.5 S 6.0 0.0 0.1
22:16 8.0 4.6 79 1003.0 3.8 S 6.0 0.0 0.1
22:17 8.0 4.6 79 1003.0 3.8 SE 6.0 0.0 0.1
22:18 8.0 4.6 79 1003.0 4.5 SE 6.0 0.0 0.1
22:19 8.0 4.6 79 1003.0 6.0 SE 6.0 0.0 0.1
22:20 8.0 4.6 79 1003.1 5.4 SE 6.0 0.0 0.1
22:21 8.0 4.6 79 1003.1 5.4 SE 6.0 0.0 0.1
22:23 8.0 4.6 79 1003.3 6.0 SSE 6.0 0.0 0.1
22:24 8.0 4.8 80 1003.1 5.4 S 6.0 0.0 0.1
22:25 8.0 4.6 79 1003.1 4.5 SE 6.0 0.0 0.1
22:26 8.0 4.8 80 1003.2 5.4 SE 6.9 0.0 0.1
22:27 8.0 4.8 80 1003.2 5.4 SE 6.9 0.0 0.1
22:28 8.0 4.8 80 1003.1 5.4 S 6.9 0.0 0.1
22:29 8.0 4.8 80 1003.1 5.4 SE 6.9 0.0 0.1
22:30 8.0 4.8 80 1003.2 5.4 SE 6.9 0.0 0.1
22:31 8.0 4.8 80 1003.2 6.9 S 6.9 0.0 0.1
22:32 8.0 4.8 80 1003.1 6.0 S 6.9 0.0 0.1
22:33 8.0 4.8 80 1003.2 6.0 S 6.9 0.0 0.1
22:34 8.0 4.8 80 1003.1 6.0 SE 6.9 0.0 0.1
22:35 7.9 4.7 80 1003.1 6.0 ESE 6.9 0.0 0.1
22:37 8.0 4.8 80 1003.2 5.4 SE 6.9 0.0 0.1
22:38 7.9 4.7 80 1003.2 5.4 SE 6.9 0.0 0.1
22:39 7.9 4.7 80 1003.2 6.9 SE 6.9 0.0 0.1
22:40 7.9 4.7 80 1003.3 6.9 S 6.9 0.0 0.1
22:41 7.9 4.7 80 1003.3 6.9 S 6.9 0.0 0.1
22:42 7.9 4.7 80 1003.1 5.4 SE 6.9 0.0 0.1
22:43 7.9 4.8 81 1003.1 6.0 SE 6.9 0.0 0.1
22:44 7.9 4.8 81 1003.1 6.9 SE 6.9 0.0 0.1
22:45 7.9 4.8 81 1003.2 7.6 SE 7.6 0.0 0.1
22:46 7.9 4.8 81 1003.0 6.0 SE 7.6 0.0 0.1
22:47 7.9 4.8 81 1003.2 6.0 SE 7.6 0.0 0.1
22:48 7.9 4.8 81 1003.1 6.0 SE 7.6 0.0 0.1
22:49 7.9 4.8 81 1003.1 6.0 SE 7.6 0.0 0.1
22:50 7.9 4.8 81 1003.2 6.0 SE 7.6 0.0 0.1
22:52 7.9 4.8 81 1003.3 6.9 E 7.6 0.0 0.1
22:53 7.9 4.8 81 1003.3 4.5 SE 7.6 0.0 0.1
22:54 7.9 4.8 81 1003.3 6.9 SE 7.6 0.0 0.1
22:55 7.9 4.8 81 1003.3 6.9 SE 7.6 0.0 0.1
22:56 7.9 4.8 81 1003.1 6.9 SE 6.9 0.0 0.1
22:57 7.9 4.8 81 1003.2 5.4 SE 6.9 0.0 0.1
22:58 7.9 4.8 81 1003.1 5.4 S 6.9 0.0 0.1
22:59 7.9 4.8 81 1003.2 6.9 SE 6.9 0.0 0.1
23:00 7.9 4.8 81 1003.3 4.5 S 6.9 0.0 0.1
23:01 7.9 4.8 81 1003.3 4.5 S 6.9 0.0 0.1
23:02 7.9 4.8 81 1003.4 4.5 S 6.9 0.0 0.1
23:03 7.9 4.8 81 1003.3 4.5 S 6.9 0.0 0.1
23:04 7.9 4.8 81 1003.2 4.5 S 6.9 0.0 0.1
23:05 7.9 4.8 81 1003.2 4.5 S 6.9 0.0 0.1
23:06 7.9 5.0 82 1003.3 5.4 SE 6.9 0.0 0.1
23:07 7.9 5.0 82 1003.3 5.4 SSE 6.9 0.0 0.1
23:09 7.9 5.0 82 1003.3 6.0 SE 6.9 0.0 0.1
23:10 7.9 5.0 82 1003.3 6.0 S 6.9 0.0 0.1
23:11 7.9 5.0 82 1003.3 6.0 S 6.9 0.0 0.1
23:12 7.9 5.0 82 1003.5 5.4 S 6.9 0.0 0.1
23:13 7.9 5.0 82 1003.3 5.4 SE 6.9 0.0 0.1
23:14 7.9 5.0 82 1003.4 6.0 SE 6.9 0.0 0.1
23:15 7.9 5.0 82 1003.5 6.0 SE 6.9 0.0 0.1
23:16 7.9 5.0 82 1003.5 5.4 SE 6.9 0.0 0.1
23:17 7.9 5.0 82 1003.3 6.0 SE 6.9 0.0 0.1
23:18 7.8 4.9 82 1003.4 5.4 SE 6.9 0.0 0.1
23:19 7.8 4.9 82 1003.5 6.0 SE 6.9 0.0 0.1
23:20 7.8 5.1 83 1003.5 5.4 SE 6.9 0.0 0.1
23:21 7.8 5.1 83 1003.5 5.4 SE 6.9 0.0 0.1
23:22 7.8 5.1 83 1003.5 6.0 SE 6.9 0.0 0.1
23:23 7.8 5.1 83 1003.4 7.6 SE 7.6 0.0 0.1
23:24 7.8 5.1 83 1003.6 6.9 SE 7.6 0.0 0.1
23:25 7.8 5.1 83 1003.5 6.9 SE 7.6 0.0 0.1
23:26 7.8 5.1 83 1003.5 6.9 SE 9.2 0.0 0.1
23:27 7.8 5.1 83 1003.6 6.0 SE 9.2 0.0 0.1
23:28 7.8 5.1 83 1003.7 7.6 SE 9.2 0.0 0.1
23:30 7.8 5.1 83 1003.7 6.0 SE 9.2 0.0 0.1
23:31 7.8 5.1 83 1003.7 6.0 SE 9.2 0.0 0.1
23:32 7.8 5.1 83 1003.7 6.0 SE 9.2 0.0 0.1
23:33 7.8 5.1 83 1003.6 6.0 SE 9.2 0.0 0.1
23:34 7.8 5.1 83 1003.6 6.9 SE 9.2 0.0 0.1
23:35 7.7 5.0 83 1003.5 6.0 SE 9.2 0.0 0.1
23:36 7.7 5.0 83 1003.6 6.0 SE 9.2 0.0 0.1
23:37 7.8 5.1 83 1003.6 5.4 SE 7.6 0.0 0.1
23:38 7.8 5.1 83 1003.7 6.9 S 7.6 0.0 0.1
23:39 7.8 5.1 83 1003.6 6.9 SE 7.6 0.0 0.1
23:40 7.7 5.0 83 1003.6 6.0 SE 6.9 0.0 0.1
23:41 7.7 5.0 83 1003.7 5.4 SE 6.9 0.0 0.1
23:42 7.7 5.0 83 1003.6 6.0 S 6.9 0.0 0.1
23:43 7.7 5.0 83 1003.6 6.0 SE 6.9 0.0 0.1
23:44 7.7 5.0 83 1003.7 4.5 SE 6.9 0.0 0.1
23:45 7.7 5.0 83 1003.7 5.4 SE 6.9 0.0 0.1
23:46 7.7 5.0 83 1003.5 5.4 SE 6.9 0.0 0.1
23:47 7.7 5.0 83 1003.7 5.4 SE 6.9 0.0 0.1
23:49 7.7 5.0 83 1003.7 6.0 S 6.9 0.0 0.1
23:50 7.7 5.2 84 1003.7 6.0 SE 6.9 0.0 0.1
23:51 7.7 5.2 84 1003.8 5.4 S 6.9 0.0 0.1
23:52 7.7 5.2 84 1003.8 6.0 S 6.9 0.0 0.1
23:53 7.7 5.2 84 1003.7 6.0 SE 6.9 0.0 0.1
23:54 7.7 5.2 84 1003.7 5.4 SE 6.9 0.0 0.1
23:55 7.7 5.2 84 1003.8 6.0 SE 6.9 0.0 0.1
23:56 7.7 5.2 84 1003.9 6.0 S 6.9 0.0 0.1
23:57 7.7 5.2 84 1004.1 5.4 SSE 6.9 0.0 0.1
23:58 7.7 5.2 84 1003.9 5.4 SE 6.9 0.0 0.1
23:59 7.7 5.2 84 1003.9 6.9 SE 6.9 0.0 0.1

UK - WEATHER STATION TOPSITES - UK World Weather Websites

This is a private weather station, never base important decisions or events on data from this weather station. Although every effort has been made to make the data as accurate as possible it does not meet MetOffice standards. It is proved as a guide of local weather conditions. We accept no liability for any loss which may arise from use of the data.

Copyright © Carnkie Weather 2009 - 2019.